Time,TemperatureF,DewpointF,PressureIn,WindDirection,WindDirectionDegrees,WindSpeedMPH,WindSpeedGustMPH,Humidity,HourlyPrecipIn,Conditions,Clouds,dailyrainin,SoftwareType,DateUTC
2013-02-18 00:00:00,14.9,-13.7,29.36,NW,309,4.0,10.0,26,-99.99,,,0.00,meteohub,2013-02-18 05:00:00,
2013-02-18 00:02:00,14.9,-13.7,29.36,NW,322,6.0,10.0,26,-99.99,,,0.00,meteohub,2013-02-18 05:02:00,
2013-02-18 00:05:00,14.9,-13.7,29.36,West,264,8.0,10.0,26,-99.99,,,0.00,meteohub,2013-02-18 05:05:00,
2013-02-18 00:07:00,14.9,-13.7,29.36,WNW,303,4.0,10.0,26,-99.99,,,0.00,meteohub,2013-02-18 05:07:00,
2013-02-18 00:08:00,14.7,-13.9,29.36,NW,311,4.0,10.0,26,-99.99,,,0.00,meteohub,2013-02-18 05:08:00,
2013-02-18 00:09:00,14.7,-13.9,29.36,NW,307,4.0,10.0,26,-99.99,,,0.00,meteohub,2013-02-18 05:09:00,
2013-02-18 00:10:00,14.7,-13.9,29.36,NNW,337,6.0,10.0,26,-99.99,,,0.00,meteohub,2013-02-18 05:10:00,
2013-02-18 00:15:00,14.5,-14.1,29.36,NW,309,4.0,8.0,26,-99.99,,,0.00,meteohub,2013-02-18 05:15:00,
2013-02-18 00:16:00,14.5,-14.1,29.36,WNW,301,5.0,8.0,26,-99.99,,,0.00,meteohub,2013-02-18 05:16:00,
2013-02-18 00:20:00,14.5,-14.1,29.36,NNW,330,6.0,9.0,26,-99.99,,,0.00,meteohub,2013-02-18 05:20:00,
2013-02-18 00:24:00,14.5,-14.1,29.36,NNW,328,6.0,9.0,26,-99.99,,,0.00,meteohub,2013-02-18 05:24:00,
2013-02-18 00:25:00,14.5,-14.1,29.36,SW,236,3.0,9.0,26,-99.99,,,0.00,meteohub,2013-02-18 05:25:00,
2013-02-18 00:26:00,14.5,-14.1,29.36,NW,305,10.0,10.0,26,-99.99,,,0.00,meteohub,2013-02-18 05:26:00,
2013-02-18 00:28:00,14.5,-14.1,29.36,NNW,331,6.0,9.0,26,-99.99,,,0.00,meteohub,2013-02-18 05:28:00,
2013-02-18 00:30:00,14.5,-14.1,29.36,NW,312,3.0,11.0,26,-99.99,,,0.00,meteohub,2013-02-18 05:30:00,
2013-02-18 00:32:00,14.5,-14.1,29.36,NW,318,0.0,11.0,26,-99.99,,,0.00,meteohub,2013-02-18 05:32:00,
2013-02-18 00:34:00,14.4,-14.3,29.36,NW,304,6.0,11.0,26,-99.99,,,0.00,meteohub,2013-02-18 05:34:00,
2013-02-18 00:35:00,14.4,-14.3,29.36,WNW,298,5.0,11.0,26,-99.99,,,0.00,meteohub,2013-02-18 05:35:00,
2013-02-18 00:36:00,14.4,-12.1,29.36,NNW,327,5.0,10.0,29,-99.99,,,0.00,meteohub,2013-02-18 05:36:00,
2013-02-18 00:39:00,14.4,-12.1,29.36,WNW,298,6.0,10.0,29,-99.99,,,0.00,meteohub,2013-02-18 05:39:00,
2013-02-18 00:40:00,14.4,-12.1,29.36,South,180,6.0,10.0,29,-99.99,,,0.00,meteohub,2013-02-18 05:40:00,
2013-02-18 00:44:00,14.4,-12.1,29.36,WNW,301,10.0,10.0,29,-99.99,,,0.00,meteohub,2013-02-18 05:44:00,
2013-02-18 00:47:00,14.4,-12.1,29.36,SW,229,8.0,8.0,29,-99.99,,,0.00,meteohub,2013-02-18 05:47:00,
2013-02-18 00:50:00,14.4,-14.3,29.36,NW,309,6.0,10.0,26,-99.99,,,0.00,meteohub,2013-02-18 05:50:00,
2013-02-18 00:52:00,14.4,-14.3,29.36,WNW,301,6.0,11.0,26,-99.99,,,0.00,meteohub,2013-02-18 05:52:00,
2013-02-18 00:53:00,14.5,-14.1,29.36,NW,308,5.0,11.0,26,-99.99,,,0.00,meteohub,2013-02-18 05:53:00,
2013-02-18 00:55:00,14.5,-14.1,29.36,NW,304,6.0,11.0,26,-99.99,,,0.00,meteohub,2013-02-18 05:55:00,
2013-02-18 00:58:00,14.5,-14.1,29.36,WNW,300,4.0,11.0,26,-99.99,,,0.00,meteohub,2013-02-18 05:58:00,
2013-02-18 00:59:00,14.5,-14.1,29.36,NNW,327,4.0,11.0,26,-99.99,,,0.00,meteohub,2013-02-18 05:59:00,
2013-02-18 01:01:00,14.5,-11.9,29.36,WNW,302,5.0,11.0,29,-99.99,,,0.00,meteohub,2013-02-18 06:01:00,
2013-02-18 01:04:00,14.5,-11.9,29.36,West,278,3.0,11.0,29,0.00,,,0.00,meteohub,2013-02-18 06:04:00,
2013-02-18 01:06:00,14.4,-12.1,29.36,West,268,8.0,11.0,29,0.00,,,0.00,meteohub,2013-02-18 06:06:00,
2013-02-18 01:07:00,14.4,-12.1,29.36,West,266,3.0,11.0,29,0.00,,,0.00,meteohub,2013-02-18 06:07:00,
2013-02-18 01:08:00,14.4,-12.1,29.36,NW,314,6.0,11.0,29,0.00,,,0.00,meteohub,2013-02-18 06:08:00,
2013-02-18 01:12:00,14.5,-11.9,29.36,West,277,4.0,8.0,29,0.00,,,0.00,meteohub,2013-02-18 06:12:00,
2013-02-18 01:13:00,14.4,-12.1,29.36,NW,325,6.0,8.0,29,0.00,,,0.00,meteohub,2013-02-18 06:13:00,
2013-02-18 01:14:00,14.4,-12.1,29.36,West,266,4.0,8.0,29,0.00,,,0.00,meteohub,2013-02-18 06:14:00,
2013-02-18 01:17:00,14.4,-12.1,29.39,NNW,341,4.0,8.0,29,0.00,,,0.00,meteohub,2013-02-18 06:17:00,
2013-02-18 01:19:00,14.4,-12.1,29.39,SW,219,6.0,8.0,29,0.00,,,0.00,meteohub,2013-02-18 06:19:00,
2013-02-18 01:21:00,14.4,-12.1,29.39,NW,319,3.0,8.0,29,0.00,,,0.00,meteohub,2013-02-18 06:21:00,
2013-02-18 01:22:00,14.4,-12.1,29.39,NNE,27,4.0,8.0,29,0.00,,,0.00,meteohub,2013-02-18 06:22:00,
2013-02-18 01:23:00,14.4,-12.1,29.39,NW,322,5.0,8.0,29,0.00,,,0.00,meteohub,2013-02-18 06:23:00,
2013-02-18 01:25:00,14.4,-12.1,29.39,WNW,298,3.0,8.0,29,0.00,,,0.00,meteohub,2013-02-18 06:25:00,
2013-02-18 01:27:00,14.4,-12.1,29.39,WNW,294,6.0,8.0,29,0.00,,,0.00,meteohub,2013-02-18 06:27:00,
2013-02-18 01:28:00,14.4,-12.1,29.39,SE,136,3.0,8.0,29,0.00,,,0.00,meteohub,2013-02-18 06:28:00,
2013-02-18 01:29:00,14.4,-12.1,29.39,WNW,297,6.0,8.0,29,0.00,,,0.00,meteohub,2013-02-18 06:29:00,
2013-02-18 01:31:00,14.2,-12.3,29.39,West,275,4.0,8.0,29,0.00,,,0.00,meteohub,2013-02-18 06:31:00,
2013-02-18 01:33:00,14.2,-12.3,29.39,WNW,286,5.0,11.0,29,0.00,,,0.00,meteohub,2013-02-18 06:33:00,
2013-02-18 01:34:00,14.2,-12.3,29.39,NW,321,8.0,11.0,29,0.00,,,0.00,meteohub,2013-02-18 06:34:00,
2013-02-18 01:36:00,14.2,-12.3,29.39,WSW,251,6.0,11.0,29,0.00,,,0.00,meteohub,2013-02-18 06:36:00,
2013-02-18 01:37:00,14.2,-12.3,29.39,NW,310,3.0,11.0,29,0.00,,,0.00,meteohub,2013-02-18 06:37:00,
2013-02-18 01:38:00,14.2,-12.3,29.39,West,266,4.0,11.0,29,0.00,,,0.00,meteohub,2013-02-18 06:38:00,
2013-02-18 01:40:00,14.2,-12.3,29.39,NW,308,4.0,11.0,29,0.00,,,0.00,meteohub,2013-02-18 06:40:00,
2013-02-18 01:43:00,14.0,-12.5,29.39,NW,311,4.0,11.0,29,0.00,,,0.00,meteohub,2013-02-18 06:43:00,
2013-02-18 01:44:00,14.0,-12.5,29.39,NNW,344,8.0,11.0,29,0.00,,,0.00,meteohub,2013-02-18 06:44:00,
2013-02-18 01:46:00,14.0,-12.5,29.39,NW,313,8.0,11.0,29,0.00,,,0.00,meteohub,2013-02-18 06:46:00,
2013-02-18 01:49:00,14.0,-12.5,29.39,ENE,62,4.0,10.0,29,0.00,,,0.00,meteohub,2013-02-18 06:49:00,
2013-02-18 01:51:00,14.0,-12.5,29.39,NNW,340,5.0,10.0,29,0.00,,,0.00,meteohub,2013-02-18 06:51:00,
2013-02-18 01:52:00,14.0,-12.5,29.39,WNW,295,6.0,10.0,29,0.00,,,0.00,meteohub,2013-02-18 06:52:00,
2013-02-18 01:55:00,14.0,-13.9,29.39,SSW,194,12.0,12.0,27,0.00,,,0.00,meteohub,2013-02-18 06:55:00,
2013-02-18 01:57:00,14.0,-13.9,29.39,WNW,299,4.0,12.0,27,0.00,,,0.00,meteohub,2013-02-18 06:57:00,
2013-02-18 01:58:00,14.0,-13.9,29.39,NNW,327,5.0,12.0,27,0.00,,,0.00,meteohub,2013-02-18 06:58:00,
2013-02-18 02:00:00,13.8,-12.6,29.39,WNW,287,4.0,12.0,29,0.00,,,0.00,meteohub,2013-02-18 07:00:00,
2013-02-18 02:03:00,13.8,-12.6,29.39,WSW,250,6.0,12.0,29,-99.99,,,0.00,meteohub,2013-02-18 07:03:00,
2013-02-18 02:05:00,13.8,-12.6,29.39,WNW,300,7.0,12.0,29,-99.99,,,0.00,meteohub,2013-02-18 07:05:00,
2013-02-18 02:08:00,13.8,-12.6,29.39,NW,307,5.0,12.0,29,-99.99,,,0.00,meteohub,2013-02-18 07:08:00,
2013-02-18 02:09:00,13.8,-12.6,29.39,NNW,331,4.0,12.0,29,-99.99,,,0.00,meteohub,2013-02-18 07:09:00,
2013-02-18 02:13:00,13.8,-12.6,29.39,West,278,6.0,11.0,29,-99.99,,,0.00,meteohub,2013-02-18 07:13:00,
2013-02-18 02:14:00,13.6,-12.8,29.39,WSW,252,6.0,11.0,29,-99.99,,,0.00,meteohub,2013-02-18 07:14:00,
2013-02-18 02:15:00,13.6,-12.8,29.39,NW,319,8.0,11.0,29,-99.99,,,0.00,meteohub,2013-02-18 07:15:00,
2013-02-18 02:16:00,13.6,-12.8,29.39,NNW,331,6.0,11.0,29,-99.99,,,0.00,meteohub,2013-02-18 07:16:00,
2013-02-18 02:18:00,13.6,-12.8,29.39,West,272,4.0,10.0,29,-99.99,,,0.00,meteohub,2013-02-18 07:18:00,
2013-02-18 02:19:00,13.6,-12.8,29.39,NNW,339,7.0,10.0,29,-99.99,,,0.00,meteohub,2013-02-18 07:19:00,
2013-02-18 02:20:00,13.6,-12.8,29.39,WNW,302,4.0,10.0,29,-99.99,,,0.00,meteohub,2013-02-18 07:20:00,
2013-02-18 02:21:00,13.6,-12.8,29.39,WNW,300,4.0,10.0,29,-99.99,,,0.00,meteohub,2013-02-18 07:21:00,
2013-02-18 02:25:00,13.6,-12.8,29.39,NW,312,6.0,15.0,29,-99.99,,,0.00,meteohub,2013-02-18 07:25:00,
2013-02-18 02:26:00,13.6,-12.8,29.39,NW,306,4.0,15.0,29,-99.99,,,0.00,meteohub,2013-02-18 07:26:00,
2013-02-18 02:27:00,13.6,-12.8,29.39,NNW,327,4.0,15.0,29,-99.99,,,0.00,meteohub,2013-02-18 07:27:00,
2013-02-18 02:31:00,13.6,-12.8,29.39,West,281,5.0,15.0,29,-99.99,,,0.00,meteohub,2013-02-18 07:31:00,
2013-02-18 02:33:00,13.6,-12.8,29.39,SSE,155,6.0,11.0,29,-99.99,,,0.00,meteohub,2013-02-18 07:33:00,
2013-02-18 02:34:00,13.5,-12.8,29.39,WNW,294,5.0,11.0,29,-99.99,,,0.00,meteohub,2013-02-18 07:34:00,
2013-02-18 02:38:00,13.5,-12.8,29.39,NW,324,3.0,16.0,29,-99.99,,,0.00,meteohub,2013-02-18 07:38:00,
2013-02-18 02:39:00,13.5,-12.8,29.39,West,274,11.0,16.0,29,-99.99,,,0.00,meteohub,2013-02-18 07:39:00,
2013-02-18 02:43:00,13.5,-12.8,29.39,West,275,6.0,16.0,29,-99.99,,,0.00,meteohub,2013-02-18 07:43:00,
2013-02-18 02:45:00,13.5,-12.8,29.42,NW,305,8.0,16.0,29,-99.99,,,0.00,meteohub,2013-02-18 07:45:00,
2013-02-18 02:47:00,13.5,-12.8,29.42,NNW,338,5.0,16.0,29,-99.99,,,0.00,meteohub,2013-02-18 07:47:00,
2013-02-18 02:48:00,13.5,-12.8,29.42,WNW,291,3.0,13.0,29,-99.99,,,0.00,meteohub,2013-02-18 07:48:00,
2013-02-18 02:50:00,13.5,-12.8,29.42,NW,307,3.0,13.0,29,-99.99,,,0.00,meteohub,2013-02-18 07:50:00,
2013-02-18 02:53:00,13.5,-12.8,29.42,NW,310,4.0,13.0,29,-99.99,,,0.00,meteohub,2013-02-18 07:53:00,
2013-02-18 02:56:00,13.5,-12.8,29.42,SW,216,5.0,13.0,29,-99.99,,,0.00,meteohub,2013-02-18 07:56:00,
2013-02-18 02:58:00,13.5,-12.8,29.42,SE,146,4.0,20.0,29,-99.99,,,0.00,meteohub,2013-02-18 07:58:00,
2013-02-18 03:00:00,13.5,-12.8,29.42,WNW,301,5.0,20.0,29,-99.99,,,0.00,meteohub,2013-02-18 08:00:00,
2013-02-18 03:02:00,13.5,-12.8,29.42,NW,322,4.0,20.0,29,-99.99,,,0.00,meteohub,2013-02-18 08:02:00,
2013-02-18 03:04:00,13.5,-12.8,29.42,NW,323,8.0,20.0,29,-99.99,,,0.00,meteohub,2013-02-18 08:04:00,
2013-02-18 03:06:00,13.5,-12.8,29.42,NW,320,3.0,20.0,29,-99.99,,,0.00,meteohub,2013-02-18 08:06:00,
2013-02-18 03:07:00,13.5,-12.8,29.42,NW,311,3.0,20.0,29,-99.99,,,0.00,meteohub,2013-02-18 08:07:00,
2013-02-18 03:10:00,13.5,-12.8,29.42,NW,319,3.0,20.0,29,-99.99,,,0.00,meteohub,2013-02-18 08:10:00,
2013-02-18 03:11:00,13.5,-12.8,29.42,NNW,331,6.0,20.0,29,-99.99,,,0.00,meteohub,2013-02-18 08:11:00,
2013-02-18 03:15:00,13.3,-13.0,29.42,WNW,292,13.0,15.0,29,-99.99,,,0.00,meteohub,2013-02-18 08:15:00,
2013-02-18 03:16:00,13.3,-13.0,29.42,NNW,342,4.0,10.0,29,-99.99,,,0.00,meteohub,2013-02-18 08:16:00,
2013-02-18 03:19:00,13.3,-13.0,29.42,WNW,297,3.0,10.0,29,-99.99,,,0.00,meteohub,2013-02-18 08:19:00,
2013-02-18 03:20:00,13.3,-13.0,29.42,NW,322,5.0,10.0,29,-99.99,,,0.00,meteohub,2013-02-18 08:20:00,
2013-02-18 03:21:00,13.3,-13.0,29.42,WSW,252,4.0,10.0,29,-99.99,,,0.00,meteohub,2013-02-18 08:21:00,
2013-02-18 03:24:00,13.3,-13.0,29.42,NNW,330,3.0,15.0,29,-99.99,,,0.00,meteohub,2013-02-18 08:24:00,
2013-02-18 03:27:00,13.3,-13.0,29.42,WNW,299,6.0,15.0,29,-99.99,,,0.00,meteohub,2013-02-18 08:27:00,
2013-02-18 03:28:00,13.3,-13.0,29.42,WNW,289,6.0,15.0,29,-99.99,,,0.00,meteohub,2013-02-18 08:28:00,
2013-02-18 03:29:00,13.3,-13.0,29.42,West,274,8.0,15.0,29,-99.99,,,0.00,meteohub,2013-02-18 08:29:00,
2013-02-18 03:33:00,13.3,-13.0,29.42,NW,313,4.0,12.0,29,-99.99,,,0.00,meteohub,2013-02-18 08:33:00,
2013-02-18 03:35:00,13.1,-13.2,29.42,NW,325,4.0,12.0,29,-99.99,,,0.00,meteohub,2013-02-18 08:35:00,
2013-02-18 03:36:00,13.1,-13.2,29.42,West,280,10.0,12.0,29,-99.99,,,0.00,meteohub,2013-02-18 08:36:00,
2013-02-18 03:39:00,13.1,-13.2,29.42,NW,319,6.0,12.0,29,-99.99,,,0.00,meteohub,2013-02-18 08:39:00,
2013-02-18 03:40:00,13.1,-13.2,29.42,SSW,197,6.0,12.0,29,-99.99,,,0.00,meteohub,2013-02-18 08:40:00,
2013-02-18 03:41:00,13.1,-13.2,29.42,NNW,338,6.0,12.0,29,-99.99,,,0.00,meteohub,2013-02-18 08:41:00,
2013-02-18 03:44:00,13.1,-13.2,29.42,West,268,4.0,10.0,29,-99.99,,,0.00,meteohub,2013-02-18 08:44:00,
2013-02-18 03:45:00,13.1,-13.2,29.42,WNW,284,6.0,10.0,29,-99.99,,,0.00,meteohub,2013-02-18 08:45:00,
2013-02-18 03:46:00,13.1,-13.2,29.42,West,279,3.0,10.0,29,-99.99,,,0.00,meteohub,2013-02-18 08:46:00,
2013-02-18 03:48:00,13.1,-13.2,29.42,NW,319,3.0,10.0,29,-99.99,,,0.00,meteohub,2013-02-18 08:48:00,
2013-02-18 03:50:00,13.1,-13.2,29.42,SSW,210,7.0,10.0,29,-99.99,,,0.00,meteohub,2013-02-18 08:50:00,
2013-02-18 03:52:00,12.9,-13.4,29.42,WNW,301,4.0,10.0,29,-99.99,,,0.00,meteohub,2013-02-18 08:52:00,
2013-02-18 03:54:00,12.9,-13.4,29.42,WNW,293,9.0,10.0,29,-99.99,,,0.00,meteohub,2013-02-18 08:54:00,
2013-02-18 03:55:00,12.9,-13.4,29.42,NW,309,6.0,10.0,29,-99.99,,,0.00,meteohub,2013-02-18 08:55:00,
2013-02-18 03:57:00,12.9,-13.4,29.42,North,7,6.0,10.0,29,-99.99,,,0.00,meteohub,2013-02-18 08:57:00,
2013-02-18 03:58:00,12.9,-13.4,29.42,SW,234,6.0,10.0,29,-99.99,,,0.00,meteohub,2013-02-18 08:58:00,
2013-02-18 04:00:00,12.9,-13.4,29.45,NNW,332,3.0,10.0,29,-99.99,,,0.00,meteohub,2013-02-18 09:00:00,
2013-02-18 04:02:00,12.9,-13.4,29.45,West,274,0.0,9.0,29,-99.99,,,0.00,meteohub,2013-02-18 09:02:00,
2013-02-18 04:04:00,12.9,-13.4,29.45,West,263,2.0,9.0,29,-99.99,,,0.00,meteohub,2013-02-18 09:04:00,
2013-02-18 04:05:00,12.9,-13.4,29.45,SSE,160,5.0,9.0,29,-99.99,,,0.00,meteohub,2013-02-18 09:05:00,
2013-02-18 04:06:00,12.9,-13.4,29.45,WNW,283,4.0,9.0,29,-99.99,,,0.00,meteohub,2013-02-18 09:06:00,
2013-02-18 04:10:00,12.9,-13.4,29.45,NW,305,3.0,9.0,29,-99.99,,,0.00,meteohub,2013-02-18 09:10:00,
2013-02-18 04:11:00,12.9,-13.4,29.45,NW,312,3.0,9.0,29,-99.99,,,0.00,meteohub,2013-02-18 09:11:00,
2013-02-18 04:15:00,12.9,-13.4,29.45,WNW,299,3.0,8.0,29,-99.99,,,0.00,meteohub,2013-02-18 09:15:00,
2013-02-18 04:16:00,12.9,-13.4,29.45,SW,217,0.0,8.0,29,-99.99,,,0.00,meteohub,2013-02-18 09:16:00,
2013-02-18 04:17:00,12.9,-13.4,29.45,WNW,295,4.0,8.0,29,-99.99,,,0.00,meteohub,2013-02-18 09:17:00,
2013-02-18 04:21:00,12.9,-13.4,29.45,NW,319,4.0,8.0,29,-99.99,,,0.00,meteohub,2013-02-18 09:21:00,
2013-02-18 04:22:00,12.9,-13.4,29.45,WSW,237,5.0,9.0,29,-99.99,,,0.00,meteohub,2013-02-18 09:22:00,
2013-02-18 04:23:00,12.9,-13.4,29.45,West,263,12.0,12.0,29,-99.99,,,0.00,meteohub,2013-02-18 09:23:00,
2013-02-18 04:27:00,12.7,-13.5,29.45,NNW,329,5.0,12.0,29,-99.99,,,0.00,meteohub,2013-02-18 09:27:00,
2013-02-18 04:28:00,12.7,-13.5,29.45,West,261,3.0,12.0,29,-99.99,,,0.00,meteohub,2013-02-18 09:28:00,
2013-02-18 04:29:00,12.7,-13.5,29.45,West,281,5.0,12.0,29,-99.99,,,0.00,meteohub,2013-02-18 09:29:00,
2013-02-18 04:34:00,12.7,-13.5,29.45,NW,311,4.0,12.0,29,-99.99,,,0.00,meteohub,2013-02-18 09:34:00,
2013-02-18 04:35:00,12.7,-13.5,29.45,East,85,4.0,12.0,29,-99.99,,,0.00,meteohub,2013-02-18 09:35:00,
2013-02-18 04:36:00,12.7,-13.5,29.45,NW,307,3.0,12.0,29,-99.99,,,0.00,meteohub,2013-02-18 09:36:00,
2013-02-18 04:38:00,12.7,-13.5,29.45,SW,221,3.0,12.0,29,-99.99,,,0.00,meteohub,2013-02-18 09:38:00,
2013-02-18 04:39:00,12.7,-13.5,29.45,NW,308,3.0,12.0,29,-99.99,,,0.00,meteohub,2013-02-18 09:39:00,
2013-02-18 04:41:00,12.7,-13.5,29.45,WNW,290,6.0,12.0,29,-99.99,,,0.00,meteohub,2013-02-18 09:41:00,
2013-02-18 04:43:00,12.7,-13.5,29.45,NW,326,3.0,9.0,29,-99.99,,,0.00,meteohub,2013-02-18 09:43:00,
2013-02-18 04:45:00,12.7,-13.5,29.48,WNW,300,9.0,9.0,29,-99.99,,,0.00,meteohub,2013-02-18 09:45:00,
2013-02-18 04:46:00,12.7,-13.5,29.48,NW,323,0.0,9.0,29,-99.99,,,0.00,meteohub,2013-02-18 09:46:00,
2013-02-18 04:47:00,12.7,-13.5,29.48,West,264,4.0,9.0,29,-99.99,,,0.00,meteohub,2013-02-18 09:47:00,
2013-02-18 04:51:00,12.7,-13.5,29.48,NW,315,3.0,11.0,29,-99.99,,,0.00,meteohub,2013-02-18 09:51:00,
2013-02-18 04:52:00,12.7,-13.5,29.48,SW,233,3.0,11.0,29,-99.99,,,0.00,meteohub,2013-02-18 09:52:00,
2013-02-18 04:56:00,12.7,-13.5,29.48,NW,316,4.0,11.0,29,-99.99,,,0.00,meteohub,2013-02-18 09:56:00,
2013-02-18 04:58:00,12.7,-13.5,29.48,NNW,327,4.0,11.0,29,-99.99,,,0.00,meteohub,2013-02-18 09:58:00,
2013-02-18 05:02:00,12.6,-13.7,29.48,WNW,301,4.0,9.0,29,-99.99,,,0.00,meteohub,2013-02-18 10:02:00,
2013-02-18 05:03:00,12.6,-13.7,29.48,WNW,288,5.0,9.0,29,-99.99,,,0.00,meteohub,2013-02-18 10:03:00,
2013-02-18 05:05:00,12.6,-13.7,29.48,NW,319,4.0,9.0,29,-99.99,,,0.00,meteohub,2013-02-18 10:05:00,
2013-02-18 05:08:00,12.6,-13.7,29.48,NW,305,3.0,9.0,29,-99.99,,,0.00,meteohub,2013-02-18 10:08:00,
2013-02-18 05:09:00,12.6,-13.7,29.48,WNW,301,5.0,9.0,29,-99.99,,,0.00,meteohub,2013-02-18 10:09:00,
2013-02-18 05:12:00,12.6,-13.7,29.48,NW,318,4.0,14.0,29,-99.99,,,0.00,meteohub,2013-02-18 10:12:00,
2013-02-18 05:15:00,12.6,-13.7,29.48,NW,320,4.0,14.0,29,-99.99,,,0.00,meteohub,2013-02-18 10:15:00,
2013-02-18 05:16:00,12.6,-13.7,29.48,NNW,329,4.0,14.0,29,-99.99,,,0.00,meteohub,2013-02-18 10:16:00,
2013-02-18 05:17:00,12.6,-13.7,29.48,WNW,303,5.0,14.0,29,-99.99,,,0.00,meteohub,2013-02-18 10:17:00,
2013-02-18 05:20:00,12.6,-13.7,29.48,NW,312,3.0,10.0,29,-99.99,,,0.00,meteohub,2013-02-18 10:20:00,
2013-02-18 05:22:00,12.6,-13.7,29.48,West,273,6.0,10.0,29,-99.99,,,0.00,meteohub,2013-02-18 10:22:00,
2013-02-18 05:25:00,12.6,-13.7,29.48,WSW,253,5.0,10.0,29,-99.99,,,0.00,meteohub,2013-02-18 10:25:00,
2013-02-18 05:27:00,12.6,-13.7,29.48,NW,304,4.0,10.0,29,-99.99,,,0.00,meteohub,2013-02-18 10:27:00,
2013-02-18 05:29:00,12.4,-13.9,29.51,NNE,19,4.0,10.0,29,-99.99,,,0.00,meteohub,2013-02-18 10:29:00,
2013-02-18 05:33:00,12.4,-13.9,29.51,WNW,293,5.0,17.0,29,-99.99,,,0.00,meteohub,2013-02-18 10:33:00,
2013-02-18 05:35:00,12.6,-13.7,29.51,NNW,333,7.0,17.0,29,-99.99,,,0.00,meteohub,2013-02-18 10:35:00,
2013-02-18 05:37:00,12.6,-13.7,29.51,NW,324,5.0,17.0,29,-99.99,,,0.00,meteohub,2013-02-18 10:37:00,
2013-02-18 05:39:00,12.6,-13.7,29.51,NW,311,8.0,13.0,29,-99.99,,,0.00,meteohub,2013-02-18 10:39:00,
2013-02-18 05:40:00,12.6,-13.7,29.51,WNW,302,3.0,13.0,29,-99.99,,,0.00,meteohub,2013-02-18 10:40:00,
2013-02-18 05:46:00,12.4,-13.9,29.51,SW,220,4.0,13.0,29,-99.99,,,0.00,meteohub,2013-02-18 10:46:00,
2013-02-18 05:47:00,12.4,-13.9,29.51,WNW,291,4.0,13.0,29,-99.99,,,0.00,meteohub,2013-02-18 10:47:00,
2013-02-18 05:51:00,12.2,-14.1,29.51,NW,326,4.0,16.0,29,-99.99,,,0.00,meteohub,2013-02-18 10:51:00,
2013-02-18 05:52:00,12.2,-14.1,29.51,SW,233,4.0,16.0,29,-99.99,,,0.00,meteohub,2013-02-18 10:52:00,
2013-02-18 05:54:00,12.2,-14.1,29.51,NNW,333,5.0,16.0,29,-99.99,,,0.00,meteohub,2013-02-18 10:54:00,
2013-02-18 05:57:00,12.2,-14.1,29.51,NW,309,6.0,16.0,29,-99.99,,,0.00,meteohub,2013-02-18 10:57:00,
2013-02-18 05:59:00,12.2,-14.1,29.51,WNW,282,6.0,16.0,29,-99.99,,,0.00,meteohub,2013-02-18 10:59:00,
2013-02-18 06:01:00,12.2,-14.1,29.51,NW,322,5.0,16.0,29,-99.99,,,0.00,meteohub,2013-02-18 11:01:00,
2013-02-18 06:05:00,12.2,-14.1,29.51,WSW,243,0.0,16.0,29,-99.99,,,0.00,meteohub,2013-02-18 11:05:00,
2013-02-18 06:10:00,12.0,-14.1,29.51,WSW,237,5.0,12.0,29,-99.99,,,0.00,meteohub,2013-02-18 11:10:00,
2013-02-18 06:11:00,12.0,-14.1,29.51,West,272,4.0,12.0,29,-99.99,,,0.00,meteohub,2013-02-18 11:11:00,
2013-02-18 06:12:00,12.0,-14.1,29.51,WNW,287,4.0,12.0,29,-99.99,,,0.00,meteohub,2013-02-18 11:12:00,
2013-02-18 06:17:00,11.8,-14.3,29.54,NW,310,3.0,12.0,29,-99.99,,,0.00,meteohub,2013-02-18 11:17:00,
2013-02-18 06:20:00,11.8,-14.3,29.54,WNW,297,6.0,12.0,29,-99.99,,,0.00,meteohub,2013-02-18 11:20:00,
2013-02-18 06:23:00,11.8,-14.3,29.54,WNW,284,8.0,11.0,29,-99.99,,,0.00,meteohub,2013-02-18 11:23:00,
2013-02-18 06:24:00,11.8,-14.3,29.54,NNW,328,4.0,11.0,29,-99.99,,,0.00,meteohub,2013-02-18 11:24:00,
2013-02-18 06:27:00,11.8,-14.3,29.54,SSW,192,4.0,11.0,29,-99.99,,,0.00,meteohub,2013-02-18 11:27:00,
2013-02-18 06:28:00,11.8,-14.3,29.54,SSW,197,6.0,11.0,29,-99.99,,,0.00,meteohub,2013-02-18 11:28:00,
2013-02-18 06:33:00,11.8,-14.3,29.54,WNW,298,0.0,11.0,29,-99.99,,,0.00,meteohub,2013-02-18 11:33:00,
2013-02-18 06:34:00,11.8,-14.3,29.54,NW,309,4.0,11.0,29,-99.99,,,0.00,meteohub,2013-02-18 11:34:00,
2013-02-18 06:39:00,11.8,-14.3,29.54,North,357,0.0,8.0,29,-99.99,,,0.00,meteohub,2013-02-18 11:39:00,
2013-02-18 06:40:00,11.8,-14.3,29.54,NNW,327,3.0,8.0,29,-99.99,,,0.00,meteohub,2013-02-18 11:40:00,
2013-02-18 06:41:00,11.8,-14.3,29.54,WNW,294,5.0,8.0,29,-99.99,,,0.00,meteohub,2013-02-18 11:41:00,
2013-02-18 06:45:00,11.7,-14.4,29.54,NW,324,8.0,8.0,29,-99.99,,,0.00,meteohub,2013-02-18 11:45:00,
2013-02-18 06:47:00,11.7,-14.4,29.54,SW,215,4.0,8.0,29,-99.99,,,0.00,meteohub,2013-02-18 11:47:00,
2013-02-18 06:49:00,11.7,-14.4,29.54,ENE,77,3.0,8.0,29,-99.99,,,0.00,meteohub,2013-02-18 11:49:00,
2013-02-18 06:50:00,11.7,-14.4,29.54,NW,324,3.0,8.0,29,-99.99,,,0.00,meteohub,2013-02-18 11:50:00,
2013-02-18 06:52:00,11.7,-14.4,29.54,West,274,7.0,8.0,29,-99.99,,,0.00,meteohub,2013-02-18 11:52:00,
2013-02-18 06:56:00,11.8,-14.3,29.54,West,265,4.0,9.0,29,-99.99,,,0.00,meteohub,2013-02-18 11:56:00,
2013-02-18 06:57:00,11.8,-14.3,29.54,NNW,332,6.0,9.0,29,-99.99,,,0.00,meteohub,2013-02-18 11:57:00,
2013-02-18 06:58:00,11.8,-14.3,29.54,SSW,199,0.0,9.0,29,-99.99,,,0.00,meteohub,2013-02-18 11:58:00,
2013-02-18 07:04:00,11.8,-14.3,29.57,West,260,6.0,9.0,29,-99.99,,,0.00,meteohub,2013-02-18 12:04:00,
2013-02-18 07:05:00,12.0,-14.1,29.57,WNW,286,9.0,10.0,29,-99.99,,,0.00,meteohub,2013-02-18 12:05:00,
2013-02-18 07:06:00,12.0,-14.1,29.57,North,0,0.0,10.0,29,-99.99,,,0.00,meteohub,2013-02-18 12:06:00,
2013-02-18 07:10:00,12.0,-14.1,29.57,NNW,328,3.0,10.0,29,-99.99,,,0.00,meteohub,2013-02-18 12:10:00,
2013-02-18 07:11:00,12.0,-14.1,29.57,WNW,288,3.0,10.0,29,-99.99,,,0.00,meteohub,2013-02-18 12:11:00,
2013-02-18 07:13:00,12.0,-14.1,29.57,NW,321,4.0,10.0,29,-99.99,,,0.00,meteohub,2013-02-18 12:13:00,
2013-02-18 07:17:00,12.0,-14.1,29.57,WSW,240,4.0,10.0,29,-99.99,,,0.00,meteohub,2013-02-18 12:17:00,
2013-02-18 07:19:00,12.2,-14.1,29.57,SSE,153,2.0,10.0,29,-99.99,,,0.00,meteohub,2013-02-18 12:19:00,
2013-02-18 07:20:00,12.4,-13.9,29.57,NW,317,4.0,10.0,29,-99.99,,,0.00,meteohub,2013-02-18 12:20:00,
2013-02-18 07:22:00,12.6,-13.7,29.57,NE,46,0.0,10.0,29,-99.99,,,0.00,meteohub,2013-02-18 12:22:00,
2013-02-18 07:25:00,12.6,-13.7,29.57,WSW,237,7.0,10.0,29,-99.99,,,0.00,meteohub,2013-02-18 12:25:00,
2013-02-18 07:26:00,12.6,-13.7,29.57,North,357,10.0,10.0,29,-99.99,,,0.00,meteohub,2013-02-18 12:26:00,
2013-02-18 07:28:00,12.7,-13.5,29.57,SW,228,4.0,10.0,29,-99.99,,,0.00,meteohub,2013-02-18 12:28:00,
2013-02-18 07:30:00,12.7,-13.5,29.57,SW,223,3.0,10.0,29,-99.99,,,0.00,meteohub,2013-02-18 12:30:00,
2013-02-18 07:31:00,12.9,-13.4,29.57,West,270,4.0,10.0,29,-99.99,,,0.00,meteohub,2013-02-18 12:31:00,
2013-02-18 07:35:00,12.9,-13.4,29.57,NW,316,4.0,11.0,29,-99.99,,,0.00,meteohub,2013-02-18 12:35:00,
2013-02-18 07:39:00,13.3,-13.0,29.57,WNW,297,3.0,11.0,29,-99.99,,,0.00,meteohub,2013-02-18 12:39:00,
2013-02-18 07:40:00,13.3,-13.0,29.57,NW,319,4.0,11.0,29,-99.99,,,0.00,meteohub,2013-02-18 12:40:00,
2013-02-18 07:45:00,13.5,-12.8,29.60,NNW,328,2.0,10.0,29,-99.99,,,0.00,meteohub,2013-02-18 12:45:00,
2013-02-18 07:46:00,13.5,-12.8,29.60,SSW,203,3.0,10.0,29,-99.99,,,0.00,meteohub,2013-02-18 12:46:00,
2013-02-18 07:48:00,13.5,-12.8,29.60,WNW,302,0.0,10.0,29,-99.99,,,0.00,meteohub,2013-02-18 12:48:00,
2013-02-18 07:51:00,13.5,-12.8,29.60,West,281,3.0,10.0,29,-99.99,,,0.00,meteohub,2013-02-18 12:51:00,
2013-02-18 07:53:00,13.5,-12.8,29.60,South,179,5.0,10.0,29,-99.99,,,0.00,meteohub,2013-02-18 12:53:00,
2013-02-18 07:57:00,13.6,-12.8,29.60,NNW,340,4.0,10.0,29,-99.99,,,0.00,meteohub,2013-02-18 12:57:00,
2013-02-18 07:59:00,13.6,-12.8,29.60,NW,304,4.0,10.0,29,-99.99,,,0.00,meteohub,2013-02-18 12:59:00,
2013-02-18 08:03:00,13.8,-12.6,29.60,WNW,294,5.0,10.0,29,-99.99,,,0.00,meteohub,2013-02-18 13:03:00,
2013-02-18 08:05:00,13.8,-12.6,29.60,WNW,297,4.0,10.0,29,-99.99,,,0.00,meteohub,2013-02-18 13:05:00,
2013-02-18 08:06:00,14.0,-12.5,29.60,NNW,334,5.0,11.0,29,-99.99,,,0.00,meteohub,2013-02-18 13:06:00,
2013-02-18 08:10:00,14.2,-12.3,29.60,NW,313,11.0,11.0,29,-99.99,,,0.00,meteohub,2013-02-18 13:10:00,
2013-02-18 08:11:00,14.2,-12.3,29.60,North,8,6.0,11.0,29,-99.99,,,0.00,meteohub,2013-02-18 13:11:00,
2013-02-18 08:13:00,14.4,-12.1,29.60,WNW,286,6.0,11.0,29,-99.99,,,0.00,meteohub,2013-02-18 13:13:00,
2013-02-18 08:15:00,14.4,-12.1,29.60,NW,315,3.0,13.0,29,-99.99,,,0.00,meteohub,2013-02-18 13:15:00,
2013-02-18 08:16:00,14.5,-11.9,29.60,South,180,4.0,13.0,29,-99.99,,,0.00,meteohub,2013-02-18 13:16:00,
2013-02-18 08:20:00,14.7,-11.7,29.60,NNW,328,4.0,13.0,29,-99.99,,,0.00,meteohub,2013-02-18 13:20:00,
2013-02-18 08:22:00,14.9,-11.6,29.60,NW,317,4.0,13.0,29,-99.99,,,0.00,meteohub,2013-02-18 13:22:00,
2013-02-18 08:23:00,15.1,-11.6,29.60,WNW,300,3.0,13.0,29,-99.99,,,0.00,meteohub,2013-02-18 13:23:00,
2013-02-18 08:26:00,15.4,-11.2,29.60,SW,236,4.0,11.0,29,-99.99,,,0.00,meteohub,2013-02-18 13:26:00,
2013-02-18 08:27:00,15.4,-11.2,29.60,WSW,242,5.0,11.0,29,-99.99,,,0.00,meteohub,2013-02-18 13:27:00,
2013-02-18 08:29:00,15.6,-11.0,29.60,WNW,299,6.0,11.0,29,-99.99,,,0.00,meteohub,2013-02-18 13:29:00,
2013-02-18 08:31:00,15.8,-10.8,29.63,WNW,303,4.0,11.0,29,-99.99,,,0.00,meteohub,2013-02-18 13:31:00,
2013-02-18 08:34:00,15.8,-10.8,29.63,North,8,3.0,11.0,29,-99.99,,,0.00,meteohub,2013-02-18 13:34:00,
2013-02-18 08:35:00,16.0,-11.4,29.63,West,278,6.0,11.0,28,-99.99,,,0.00,meteohub,2013-02-18 13:35:00,
2013-02-18 08:38:00,16.2,-11.2,29.63,NW,314,4.0,11.0,28,-99.99,,,0.00,meteohub,2013-02-18 13:38:00,
2013-02-18 08:40:00,16.5,-10.8,29.63,NW,310,0.0,11.0,28,-99.99,,,0.00,meteohub,2013-02-18 13:40:00,
2013-02-18 08:41:00,16.5,-10.8,29.63,WNW,292,0.0,11.0,28,-99.99,,,0.00,meteohub,2013-02-18 13:41:00,
2013-02-18 08:43:00,16.7,-10.8,29.63,WNW,293,4.0,11.0,28,-99.99,,,0.00,meteohub,2013-02-18 13:43:00,
2013-02-18 08:46:00,16.9,-10.7,29.63,NW,322,4.0,11.0,28,-99.99,,,0.00,meteohub,2013-02-18 13:46:00,
2013-02-18 08:47:00,16.9,-10.7,29.63,NW,317,3.0,11.0,28,-99.99,,,0.00,meteohub,2013-02-18 13:47:00,
2013-02-18 08:49:00,17.1,-10.5,29.63,NW,304,5.0,11.0,28,-99.99,,,0.00,meteohub,2013-02-18 13:49:00,
2013-02-18 08:52:00,17.4,-10.1,29.63,West,270,5.0,11.0,28,-99.99,,,0.00,meteohub,2013-02-18 13:52:00,
2013-02-18 08:55:00,17.6,-9.9,29.63,NNE,23,0.0,8.0,28,-99.99,,,0.00,meteohub,2013-02-18 13:55:00,
2013-02-18 09:00:00,18.1,-9.6,29.63,NW,315,3.0,8.0,28,-99.99,,,0.00,meteohub,2013-02-18 14:00:00,
2013-02-18 09:01:00,18.1,-9.6,29.63,WSW,244,3.0,8.0,28,-99.99,,,0.00,meteohub,2013-02-18 14:01:00,
2013-02-18 09:02:00,18.3,-9.4,29.63,WNW,285,5.0,8.0,28,-99.99,,,0.00,meteohub,2013-02-18 14:02:00,
2013-02-18 09:07:00,18.5,-9.2,29.63,SW,220,0.0,7.0,28,-99.99,,,0.00,meteohub,2013-02-18 14:07:00,
2013-02-18 09:08:00,18.5,-9.2,29.63,NW,317,0.0,7.0,28,-99.99,,,0.00,meteohub,2013-02-18 14:08:00,
2013-02-18 09:09:00,18.7,-9.0,29.63,WNW,303,4.0,7.0,28,-99.99,,,0.00,meteohub,2013-02-18 14:09:00,
2013-02-18 09:15:00,19.4,-8.3,29.63,NW,316,6.0,7.0,28,-99.99,,,0.00,meteohub,2013-02-18 14:15:00,
2013-02-18 09:16:00,19.8,-10.5,29.63,NNW,337,4.0,10.0,25,-99.99,,,0.00,meteohub,2013-02-18 14:16:00,
2013-02-18 09:18:00,20.1,-10.1,29.63,NNW,327,5.0,10.0,25,-99.99,,,0.00,meteohub,2013-02-18 14:18:00,
2013-02-18 09:20:00,20.3,-9.9,29.63,WNW,303,4.0,10.0,25,-99.99,,,0.00,meteohub,2013-02-18 14:20:00,
2013-02-18 09:22:00,20.7,-9.6,29.63,WSW,258,2.0,10.0,25,-99.99,,,0.00,meteohub,2013-02-18 14:22:00,
2013-02-18 09:24:00,20.8,-9.4,29.63,NW,316,4.0,10.0,25,-99.99,,,0.00,meteohub,2013-02-18 14:24:00,
2013-02-18 09:26:00,21.4,-9.0,29.63,ESE,120,0.0,11.0,25,-99.99,,,0.00,meteohub,2013-02-18 14:26:00,
2013-02-18 09:27:00,21.4,-9.0,29.63,NW,318,3.0,11.0,25,-99.99,,,0.00,meteohub,2013-02-18 14:27:00,
2013-02-18 09:29:00,21.9,-8.5,29.63,SW,222,4.0,11.0,25,-99.99,,,0.00,meteohub,2013-02-18 14:29:00,
2013-02-18 09:32:00,22.3,-8.1,29.63,NNW,339,3.0,11.0,25,-99.99,,,0.00,meteohub,2013-02-18 14:32:00,
2013-02-18 09:40:00,22.5,-8.1,29.63,NW,305,3.0,11.0,25,-99.99,,,0.00,meteohub,2013-02-18 14:40:00,
2013-02-18 09:41:00,22.8,-7.8,29.63,West,276,5.0,8.0,25,-99.99,,,0.00,meteohub,2013-02-18 14:41:00,
2013-02-18 09:43:00,22.8,-7.8,29.63,West,275,6.0,8.0,25,-99.99,,,0.00,meteohub,2013-02-18 14:43:00,
2013-02-18 09:46:00,23.2,-8.3,29.63,NW,310,3.0,8.0,24,-99.99,,,0.00,meteohub,2013-02-18 14:46:00,
2013-02-18 09:47:00,23.2,-8.3,29.63,NW,325,3.0,8.0,24,-99.99,,,0.00,meteohub,2013-02-18 14:47:00,
2013-02-18 09:49:00,23.7,-7.8,29.63,WNW,292,3.0,8.0,24,-99.99,,,0.00,meteohub,2013-02-18 14:49:00,
2013-02-18 09:51:00,24.1,-7.4,29.63,NW,323,6.0,8.0,24,-99.99,,,0.00,meteohub,2013-02-18 14:51:00,
2013-02-18 09:52:00,24.3,-7.4,29.63,NNW,339,3.0,8.0,24,-99.99,,,0.00,meteohub,2013-02-18 14:52:00,
2013-02-18 09:57:00,24.4,-9.0,29.63,SW,218,8.0,8.0,22,-99.99,,,0.00,meteohub,2013-02-18 14:57:00,
2013-02-18 10:02:00,24.4,-9.0,29.63,NW,318,3.0,8.0,22,-99.99,,,0.00,meteohub,2013-02-18 15:02:00,
2013-02-18 10:03:00,24.6,-8.9,29.63,NNW,327,3.0,13.0,22,-99.99,,,0.00,meteohub,2013-02-18 15:03:00,
2013-02-18 10:08:00,24.8,-8.7,29.63,SSE,149,2.0,13.0,22,-99.99,,,0.00,meteohub,2013-02-18 15:08:00,
2013-02-18 10:09:00,24.8,-8.7,29.63,WNW,290,4.0,13.0,22,-99.99,,,0.00,meteohub,2013-02-18 15:09:00,
2013-02-18 10:13:00,25.5,-9.0,29.63,WNW,286,10.0,15.0,21,-99.99,,,0.00,meteohub,2013-02-18 15:13:00,
2013-02-18 10:14:00,25.7,-8.9,29.63,WNW,284,3.0,15.0,21,-99.99,,,0.00,meteohub,2013-02-18 15:14:00,
2013-02-18 10:16:00,25.7,-8.9,29.63,SSE,152,7.0,15.0,21,-99.99,,,0.00,meteohub,2013-02-18 15:16:00,
2013-02-18 10:20:00,25.9,-8.7,29.63,WNW,287,11.0,15.0,21,-99.99,,,0.00,meteohub,2013-02-18 15:20:00,
2013-02-18 10:24:00,26.1,-8.5,29.63,NW,316,0.0,15.0,21,-99.99,,,0.00,meteohub,2013-02-18 15:24:00,
2013-02-18 10:28:00,26.1,-10.7,29.63,West,272,6.0,15.0,19,-99.99,,,0.00,meteohub,2013-02-18 15:28:00,
2013-02-18 10:29:00,25.9,-8.7,29.63,WSW,256,4.0,15.0,21,-99.99,,,0.00,meteohub,2013-02-18 15:29:00,
2013-02-18 10:31:00,25.7,-8.9,29.66,NW,311,4.0,15.0,21,-99.99,,,0.00,meteohub,2013-02-18 15:31:00,
2013-02-18 10:33:00,25.9,-10.7,29.66,NNW,337,3.0,14.0,19,-99.99,,,0.00,meteohub,2013-02-18 15:33:00,
2013-02-18 10:34:00,25.9,-10.7,29.66,SSW,211,3.0,14.0,19,-99.99,,,0.00,meteohub,2013-02-18 15:34:00,
2013-02-18 10:36:00,26.1,-8.5,29.66,SW,227,3.0,14.0,21,-99.99,,,0.00,meteohub,2013-02-18 15:36:00,
2013-02-18 10:42:00,26.4,-8.3,29.66,NW,314,3.0,13.0,21,-99.99,,,0.00,meteohub,2013-02-18 15:42:00,
2013-02-18 10:43:00,27.0,-7.8,29.66,WSW,258,3.0,12.0,21,-99.99,,,0.00,meteohub,2013-02-18 15:43:00,
2013-02-18 10:44:00,27.0,-7.8,29.66,NNW,337,6.0,12.0,21,-99.99,,,0.00,meteohub,2013-02-18 15:44:00,
2013-02-18 10:49:00,27.1,-10.8,29.66,NNW,328,6.0,12.0,18,-99.99,,,0.00,meteohub,2013-02-18 15:49:00,
2013-02-18 10:52:00,27.3,-10.7,29.66,NNW,330,5.0,9.0,18,-99.99,,,0.00,meteohub,2013-02-18 15:52:00,
2013-02-18 10:53:00,27.1,-10.8,29.66,WNW,301,0.0,9.0,18,-99.99,,,0.00,meteohub,2013-02-18 15:53:00,
2013-02-18 10:56:00,27.0,-10.8,29.66,NNW,329,3.0,9.0,18,-99.99,,,0.00,meteohub,2013-02-18 15:56:00,
2013-02-18 10:57:00,27.0,-10.8,29.66,NW,321,4.0,9.0,18,-99.99,,,0.00,meteohub,2013-02-18 15:57:00,
2013-02-18 11:02:00,26.8,-11.0,29.66,WNW,295,2.0,9.0,18,-99.99,,,0.00,meteohub,2013-02-18 16:02:00,
2013-02-18 11:03:00,26.8,-11.0,29.66,WNW,300,3.0,8.0,18,-99.99,,,0.00,meteohub,2013-02-18 16:03:00,
2013-02-18 11:07:00,26.8,-11.0,29.66,WNW,299,5.0,8.0,18,-99.99,,,0.00,meteohub,2013-02-18 16:07:00,
2013-02-18 11:08:00,26.8,-11.0,29.66,WNW,298,4.0,8.0,18,-99.99,,,0.00,meteohub,2013-02-18 16:08:00,
2013-02-18 11:09:00,27.0,-10.8,29.66,WNW,292,4.0,8.0,18,-99.99,,,0.00,meteohub,2013-02-18 16:09:00,
2013-02-18 11:12:00,27.1,-10.8,29.66,NNW,338,4.0,10.0,18,-99.99,,,0.00,meteohub,2013-02-18 16:12:00,
2013-02-18 11:14:00,27.5,-10.5,29.66,NW,305,0.0,10.0,18,-99.99,,,0.00,meteohub,2013-02-18 16:14:00,
2013-02-18 11:19:00,28.6,-9.6,29.66,West,272,4.0,10.0,18,-99.99,,,0.00,meteohub,2013-02-18 16:19:00,
2013-02-18 11:20:00,28.6,-9.6,29.66,NW,324,3.0,10.0,18,-99.99,,,0.00,meteohub,2013-02-18 16:20:00,
2013-02-18 11:22:00,28.9,-9.2,29.66,North,353,0.0,10.0,18,-99.99,,,0.00,meteohub,2013-02-18 16:22:00,
2013-02-18 11:25:00,29.5,-8.9,29.66,WNW,293,0.0,10.0,18,-99.99,,,0.00,meteohub,2013-02-18 16:25:00,
2013-02-18 11:27:00,29.5,-8.9,29.66,WNW,285,5.0,10.0,18,-99.99,,,0.00,meteohub,2013-02-18 16:27:00,
2013-02-18 11:30:00,29.5,-8.9,29.66,WNW,300,4.0,10.0,18,-99.99,,,0.00,meteohub,2013-02-18 16:30:00,
2013-02-18 11:32:00,29.5,-8.9,29.66,NNW,346,4.0,8.0,18,-99.99,,,0.00,meteohub,2013-02-18 16:32:00,
2013-02-18 11:36:00,29.3,-9.0,29.66,NW,308,9.0,9.0,18,-99.99,,,0.00,meteohub,2013-02-18 16:36:00,
2013-02-18 11:38:00,29.3,-9.0,29.66,West,276,4.0,8.0,18,-99.99,,,0.00,meteohub,2013-02-18 16:38:00,
2013-02-18 11:39:00,29.5,-8.9,29.66,WNW,290,4.0,8.0,18,-99.99,,,0.00,meteohub,2013-02-18 16:39:00,
2013-02-18 11:42:00,29.5,-8.9,29.66,WSW,252,5.0,8.0,18,-99.99,,,0.00,meteohub,2013-02-18 16:42:00,
2013-02-18 11:43:00,29.7,-8.7,29.66,West,275,3.0,10.0,18,-99.99,,,0.00,meteohub,2013-02-18 16:43:00,
2013-02-18 11:45:00,29.8,-8.5,29.66,WNW,299,4.0,10.0,18,-99.99,,,0.00,meteohub,2013-02-18 16:45:00,
2013-02-18 11:49:00,29.8,-8.5,29.66,North,353,4.0,10.0,18,-99.99,,,0.00,meteohub,2013-02-18 16:49:00,
2013-02-18 11:50:00,30.2,-8.3,29.66,South,169,3.0,10.0,18,-99.99,,,0.00,meteohub,2013-02-18 16:50:00,
2013-02-18 11:51:00,30.2,-8.3,29.66,WNW,302,0.0,10.0,18,-99.99,,,0.00,meteohub,2013-02-18 16:51:00,
2013-02-18 11:54:00,30.0,-8.3,29.66,North,0,6.0,10.0,18,-99.99,,,0.00,meteohub,2013-02-18 16:54:00,
2013-02-18 11:55:00,29.8,-8.5,29.66,NNW,330,6.0,10.0,18,-99.99,,,0.00,meteohub,2013-02-18 16:55:00,
2013-02-18 11:56:00,29.8,-8.5,29.66,WNW,298,8.0,10.0,18,-99.99,,,0.00,meteohub,2013-02-18 16:56:00,
2013-02-18 12:01:00,29.5,-8.9,29.66,West,277,6.0,10.0,18,-99.99,,,0.00,meteohub,2013-02-18 17:01:00,
2013-02-18 12:02:00,28.9,-9.2,29.66,SW,221,11.0,11.0,18,-99.99,,,0.00,meteohub,2013-02-18 17:02:00,
2013-02-18 12:07:00,28.2,-9.9,29.66,West,270,5.0,10.0,18,-99.99,,,0.00,meteohub,2013-02-18 17:07:00,
2013-02-18 12:09:00,28.2,-9.9,29.66,NW,313,7.0,10.0,18,-99.99,,,0.00,meteohub,2013-02-18 17:09:00,
2013-02-18 12:12:00,28.0,-9.9,29.66,WNW,298,4.0,11.0,18,-99.99,,,0.00,meteohub,2013-02-18 17:12:00,
2013-02-18 12:13:00,28.2,-9.9,29.66,SE,144,3.0,11.0,18,-99.99,,,0.00,meteohub,2013-02-18 17:13:00,
2013-02-18 12:18:00,28.2,-9.9,29.66,SSE,149,3.0,11.0,18,-99.99,,,0.00,meteohub,2013-02-18 17:18:00,
2013-02-18 12:23:00,28.9,-9.2,29.66,WNW,291,0.0,11.0,18,-99.99,,,0.00,meteohub,2013-02-18 17:23:00,
2013-02-18 12:24:00,28.9,-9.2,29.66,SW,228,4.0,11.0,18,-99.99,,,0.00,meteohub,2013-02-18 17:24:00,
2013-02-18 12:26:00,29.1,-9.0,29.66,WNW,296,8.0,11.0,18,-99.99,,,0.00,meteohub,2013-02-18 17:26:00,
2013-02-18 12:28:00,29.3,-9.0,29.66,WNW,301,5.0,11.0,18,-99.99,,,0.00,meteohub,2013-02-18 17:28:00,
2013-02-18 12:30:00,29.3,-9.0,29.66,SW,221,11.0,11.0,18,-99.99,,,0.00,meteohub,2013-02-18 17:30:00,
2013-02-18 12:33:00,29.7,-8.7,29.66,West,267,0.0,9.0,18,-99.99,,,0.00,meteohub,2013-02-18 17:33:00,
2013-02-18 12:34:00,29.7,-8.7,29.66,WNW,301,4.0,9.0,18,-99.99,,,0.00,meteohub,2013-02-18 17:34:00,
2013-02-18 12:36:00,30.0,-8.3,29.66,WNW,303,8.0,9.0,18,-99.99,,,0.00,meteohub,2013-02-18 17:36:00,
2013-02-18 12:41:00,30.2,-8.3,29.66,SW,218,3.0,11.0,18,-99.99,,,0.00,meteohub,2013-02-18 17:41:00,
2013-02-18 12:43:00,30.4,-8.1,29.66,NNW,327,4.0,11.0,18,-99.99,,,0.00,meteohub,2013-02-18 17:43:00,
2013-02-18 12:47:00,30.9,-7.6,29.66,NW,317,0.0,11.0,18,-99.99,,,0.00,meteohub,2013-02-18 17:47:00,
2013-02-18 12:48:00,31.1,-7.4,29.66,SW,220,4.0,11.0,18,-99.99,,,0.00,meteohub,2013-02-18 17:48:00,
2013-02-18 12:53:00,31.6,-7.1,29.66,NNW,345,3.0,15.0,18,-99.99,,,0.00,meteohub,2013-02-18 17:53:00,
2013-02-18 12:54:00,31.8,-6.9,29.66,East,81,4.0,15.0,18,-99.99,,,0.00,meteohub,2013-02-18 17:54:00,
2013-02-18 12:55:00,31.8,-6.9,29.66,WNW,286,0.0,15.0,18,-99.99,,,0.00,meteohub,2013-02-18 17:55:00,
2013-02-18 13:02:00,32.0,-6.7,29.66,SSW,204,6.0,15.0,18,-99.99,,,0.00,meteohub,2013-02-18 18:02:00,
2013-02-18 13:07:00,31.8,-6.9,29.66,WNW,287,5.0,15.0,18,-99.99,,,0.00,meteohub,2013-02-18 18:07:00,
2013-02-18 13:08:00,32.0,-6.7,29.66,SSW,199,0.0,15.0,18,-99.99,,,0.00,meteohub,2013-02-18 18:08:00,
2013-02-18 13:13:00,32.0,-6.7,29.66,WNW,300,0.0,8.0,18,-99.99,,,0.00,meteohub,2013-02-18 18:13:00,
2013-02-18 13:14:00,31.8,-6.9,29.66,ENE,58,0.0,8.0,18,-99.99,,,0.00,meteohub,2013-02-18 18:14:00,
2013-02-18 13:15:00,31.8,-6.9,29.66,West,272,8.0,8.0,18,-99.99,,,0.00,meteohub,2013-02-18 18:15:00,
2013-02-18 13:18:00,31.3,-7.4,29.66,WNW,291,4.0,8.0,18,-99.99,,,0.00,meteohub,2013-02-18 18:18:00,
2013-02-18 13:20:00,31.1,-7.4,29.66,South,186,8.0,8.0,18,-99.99,,,0.00,meteohub,2013-02-18 18:20:00,
2013-02-18 13:22:00,30.9,-7.6,29.66,NW,314,9.0,9.0,18,-99.99,,,0.00,meteohub,2013-02-18 18:22:00,
2013-02-18 13:25:00,30.2,-11.9,29.66,NW,317,0.0,9.0,15,-99.99,,,0.00,meteohub,2013-02-18 18:25:00,
2013-02-18 13:26:00,30.2,-11.9,29.66,NNW,345,3.0,9.0,15,-99.99,,,0.00,meteohub,2013-02-18 18:26:00,
2013-02-18 13:27:00,30.0,-8.3,29.66,NW,317,3.0,9.0,18,-99.99,,,0.00,meteohub,2013-02-18 18:27:00,
2013-02-18 13:31:00,29.8,-12.3,29.66,NW,304,3.0,9.0,15,-99.99,,,0.00,meteohub,2013-02-18 18:31:00,
2013-02-18 13:34:00,29.7,-12.3,29.66,WNW,298,3.0,12.0,15,-99.99,,,0.00,meteohub,2013-02-18 18:34:00,
2013-02-18 13:36:00,29.7,-12.3,29.66,WNW,293,4.0,12.0,15,-99.99,,,0.00,meteohub,2013-02-18 18:36:00,
2013-02-18 13:37:00,29.7,-12.3,29.66,NW,318,4.0,12.0,15,-99.99,,,0.00,meteohub,2013-02-18 18:37:00,
2013-02-18 13:40:00,29.5,-12.5,29.66,West,274,0.0,9.0,15,-99.99,,,0.00,meteohub,2013-02-18 18:40:00,
2013-02-18 13:41:00,29.5,-12.5,29.66,West,265,3.0,9.0,15,-99.99,,,0.00,meteohub,2013-02-18 18:41:00,
2013-02-18 13:42:00,29.5,-12.5,29.66,WSW,255,5.0,9.0,15,-99.99,,,0.00,meteohub,2013-02-18 18:42:00,
2013-02-18 13:45:00,29.3,-12.6,29.66,West,280,4.0,9.0,15,-99.99,,,0.00,meteohub,2013-02-18 18:45:00,
2013-02-18 13:46:00,29.3,-12.6,29.66,NW,309,11.0,11.0,15,-99.99,,,0.00,meteohub,2013-02-18 18:46:00,
2013-02-18 13:48:00,29.1,-12.8,29.66,East,97,3.0,9.0,15,-99.99,,,0.00,meteohub,2013-02-18 18:48:00,
2013-02-18 13:50:00,29.1,-12.8,29.66,NW,306,4.0,9.0,15,-99.99,,,0.00,meteohub,2013-02-18 18:50:00,
2013-02-18 13:51:00,29.1,-12.8,29.66,NW,319,0.0,9.0,15,-99.99,,,0.00,meteohub,2013-02-18 18:51:00,
2013-02-18 13:53:00,29.1,-12.8,29.66,NNW,331,3.0,11.0,15,-99.99,,,0.00,meteohub,2013-02-18 18:53:00,
2013-02-18 13:57:00,29.1,-12.8,29.66,SE,138,3.0,11.0,15,-99.99,,,0.00,meteohub,2013-02-18 18:57:00,
2013-02-18 13:59:00,29.1,-12.8,29.66,SE,136,3.0,11.0,15,-99.99,,,0.00,meteohub,2013-02-18 18:59:00,
2013-02-18 14:02:00,28.9,-13.0,29.66,WNW,301,8.0,10.0,15,-99.99,,,0.00,meteohub,2013-02-18 19:02:00,
2013-02-18 14:04:00,28.9,-13.0,29.66,North,6,6.0,10.0,15,-99.99,,,0.00,meteohub,2013-02-18 19:04:00,
2013-02-18 14:06:00,28.9,-13.0,29.66,WNW,282,4.0,10.0,15,-99.99,,,0.00,meteohub,2013-02-18 19:06:00,
2013-02-18 14:09:00,28.8,-13.2,29.66,NW,325,4.0,10.0,15,-99.99,,,0.00,meteohub,2013-02-18 19:09:00,
2013-02-18 14:10:00,28.8,-13.2,29.66,WNW,298,4.0,10.0,15,-99.99,,,0.00,meteohub,2013-02-18 19:10:00,
2013-02-18 14:11:00,28.8,-13.2,29.66,West,270,6.0,10.0,15,-99.99,,,0.00,meteohub,2013-02-18 19:11:00,
2013-02-18 14:15:00,28.8,-13.2,29.66,WSW,238,3.0,11.0,15,-99.99,,,0.00,meteohub,2013-02-18 19:15:00,
2013-02-18 14:16:00,28.8,-13.2,29.66,WNW,292,3.0,11.0,15,-99.99,,,0.00,meteohub,2013-02-18 19:16:00,
2013-02-18 14:17:00,28.8,-13.2,29.66,WNW,290,4.0,11.0,15,-99.99,,,0.00,meteohub,2013-02-18 19:17:00,
2013-02-18 14:22:00,28.6,-13.2,29.66,WNW,302,3.0,11.0,15,-99.99,,,0.00,meteohub,2013-02-18 19:22:00,
2013-02-18 14:23:00,28.6,-13.2,29.66,NNW,338,3.0,11.0,15,-99.99,,,0.00,meteohub,2013-02-18 19:23:00,
2013-02-18 14:25:00,28.6,-13.2,29.66,West,267,4.0,11.0,15,-99.99,,,0.00,meteohub,2013-02-18 19:25:00,
2013-02-18 14:28:00,28.6,-13.2,29.66,WSW,257,7.0,11.0,15,-99.99,,,0.00,meteohub,2013-02-18 19:28:00,
2013-02-18 14:29:00,28.6,-13.2,29.66,West,276,0.0,11.0,15,-99.99,,,0.00,meteohub,2013-02-18 19:29:00,
2013-02-18 14:33:00,28.4,-12.1,29.66,West,263,6.0,11.0,16,-99.99,,,0.00,meteohub,2013-02-18 19:33:00,
2013-02-18 14:35:00,28.4,-12.1,29.66,WNW,286,8.0,11.0,16,-99.99,,,0.00,meteohub,2013-02-18 19:35:00,
2013-02-18 14:36:00,28.4,-12.1,29.66,WNW,285,6.0,11.0,16,-99.99,,,0.00,meteohub,2013-02-18 19:36:00,
2013-02-18 14:39:00,28.4,-12.1,29.66,SW,219,5.0,11.0,16,-99.99,,,0.00,meteohub,2013-02-18 19:39:00,
2013-02-18 14:41:00,28.4,-12.1,29.66,WNW,291,3.0,11.0,16,-99.99,,,0.00,meteohub,2013-02-18 19:41:00,
2013-02-18 14:43:00,28.4,-12.1,29.66,WNW,285,8.0,11.0,16,-99.99,,,0.00,meteohub,2013-02-18 19:43:00,
2013-02-18 14:47:00,28.4,-12.1,29.66,South,176,3.0,11.0,16,-99.99,,,0.00,meteohub,2013-02-18 19:47:00,
2013-02-18 14:49:00,28.2,-12.3,29.66,West,276,2.0,11.0,16,-99.99,,,0.00,meteohub,2013-02-18 19:49:00,
2013-02-18 14:52:00,28.4,-12.1,29.66,West,275,13.0,13.0,16,-99.99,,,0.00,meteohub,2013-02-18 19:52:00,
2013-02-18 14:53:00,28.4,-12.1,29.66,WNW,293,4.0,12.0,16,-99.99,,,0.00,meteohub,2013-02-18 19:53:00,
2013-02-18 14:58:00,28.4,-12.1,29.66,WSW,247,8.0,13.0,16,-99.99,,,0.00,meteohub,2013-02-18 19:58:00,
2013-02-18 14:59:00,28.4,-12.1,29.66,WNW,288,6.0,13.0,16,-99.99,,,0.00,meteohub,2013-02-18 19:59:00,
2013-02-18 15:00:00,28.4,-12.1,29.66,NNW,330,0.0,13.0,16,-99.99,,,0.00,meteohub,2013-02-18 20:00:00,
2013-02-18 15:03:00,28.4,-12.1,29.66,WNW,296,5.0,13.0,16,-99.99,,,0.00,meteohub,2013-02-18 20:03:00,
2013-02-18 15:06:00,28.4,-12.1,29.66,NNW,330,4.0,13.0,16,-99.99,,,0.00,meteohub,2013-02-18 20:06:00,
2013-02-18 15:07:00,28.4,-12.1,29.66,WSW,251,8.0,13.0,16,-99.99,,,0.00,meteohub,2013-02-18 20:07:00,
2013-02-18 15:09:00,28.4,-12.1,29.66,West,278,10.0,13.0,16,-99.99,,,0.00,meteohub,2013-02-18 20:09:00,
2013-02-18 15:12:00,28.4,-12.1,29.66,NW,310,3.0,10.0,16,-99.99,,,0.00,meteohub,2013-02-18 20:12:00,
2013-02-18 15:13:00,28.4,-12.1,29.66,SW,223,7.0,10.0,16,-99.99,,,0.00,meteohub,2013-02-18 20:13:00,
2013-02-18 15:17:00,28.4,-12.1,29.69,NNW,328,3.0,10.0,16,-99.99,,,0.00,meteohub,2013-02-18 20:17:00,
2013-02-18 15:18:00,28.4,-12.1,29.69,NNW,328,5.0,10.0,16,-99.99,,,0.00,meteohub,2013-02-18 20:18:00,
2013-02-18 15:19:00,28.4,-12.1,29.69,SW,230,2.0,10.0,16,-99.99,,,0.00,meteohub,2013-02-18 20:19:00,
2013-02-18 15:23:00,28.4,-12.1,29.69,NNW,340,4.0,10.0,16,-99.99,,,0.00,meteohub,2013-02-18 20:23:00,
2013-02-18 15:24:00,28.4,-12.1,29.69,NW,304,3.0,10.0,16,-99.99,,,0.00,meteohub,2013-02-18 20:24:00,
2013-02-18 15:27:00,28.2,-12.3,29.69,WNW,299,4.0,10.0,16,-99.99,,,0.00,meteohub,2013-02-18 20:27:00,
2013-02-18 15:29:00,28.2,-12.3,29.69,WNW,301,0.0,10.0,16,-99.99,,,0.00,meteohub,2013-02-18 20:29:00,
2013-02-18 15:30:00,28.2,-12.3,29.69,WNW,285,8.0,10.0,16,-99.99,,,0.00,meteohub,2013-02-18 20:30:00,
2013-02-18 15:34:00,28.2,-12.3,29.69,WNW,285,4.0,10.0,16,-99.99,,,0.00,meteohub,2013-02-18 20:34:00,
2013-02-18 15:35:00,28.0,-12.5,29.69,WSW,246,6.0,10.0,16,-99.99,,,0.00,meteohub,2013-02-18 20:35:00,
2013-02-18 15:36:00,28.0,-12.5,29.69,WNW,302,4.0,10.0,16,-99.99,,,0.00,meteohub,2013-02-18 20:36:00,
2013-02-18 15:41:00,27.9,-12.5,29.69,South,185,3.0,10.0,16,-99.99,,,0.00,meteohub,2013-02-18 20:41:00,
2013-02-18 15:42:00,27.9,-12.5,29.69,West,264,6.0,10.0,16,-99.99,,,0.00,meteohub,2013-02-18 20:42:00,
2013-02-18 15:46:00,27.9,-12.5,29.69,NW,326,3.0,10.0,16,-99.99,,,0.00,meteohub,2013-02-18 20:46:00,
2013-02-18 15:48:00,27.9,-12.5,29.69,WNW,298,5.0,10.0,16,-99.99,,,0.00,meteohub,2013-02-18 20:48:00,
2013-02-18 15:49:00,27.9,-12.5,29.69,NW,306,4.0,10.0,16,-99.99,,,0.00,meteohub,2013-02-18 20:49:00,
2013-02-18 15:53:00,27.9,-12.5,29.69,SW,220,4.0,12.0,16,-99.99,,,0.00,meteohub,2013-02-18 20:53:00,
2013-02-18 15:54:00,27.9,-12.5,29.69,NNW,327,4.0,12.0,16,-99.99,,,0.00,meteohub,2013-02-18 20:54:00,
2013-02-18 16:02:00,27.9,-12.5,29.69,WNW,300,0.0,12.0,16,-99.99,,,0.00,meteohub,2013-02-18 21:02:00,
2013-02-18 16:05:00,27.9,-12.5,29.69,WNW,299,3.0,8.0,16,-99.99,,,0.00,meteohub,2013-02-18 21:05:00,
2013-02-18 16:07:00,27.9,-12.5,29.69,West,276,3.0,8.0,16,-99.99,,,0.00,meteohub,2013-02-18 21:07:00,
2013-02-18 16:08:00,27.9,-12.5,29.69,WNW,297,4.0,8.0,16,-99.99,,,0.00,meteohub,2013-02-18 21:08:00,
2013-02-18 16:13:00,27.9,-12.5,29.69,NW,313,10.0,11.0,16,-99.99,,,0.00,meteohub,2013-02-18 21:13:00,
2013-02-18 16:15:00,27.7,-12.6,29.69,WSW,255,4.0,11.0,16,-99.99,,,0.00,meteohub,2013-02-18 21:15:00,
2013-02-18 16:19:00,27.7,-12.6,29.69,NW,317,3.0,11.0,16,-99.99,,,0.00,meteohub,2013-02-18 21:19:00,
2013-02-18 16:20:00,27.7,-12.6,29.69,SSW,195,3.0,11.0,16,-99.99,,,0.00,meteohub,2013-02-18 21:20:00,
2013-02-18 16:24:00,27.7,-12.6,29.69,WNW,300,2.0,11.0,16,-99.99,,,0.00,meteohub,2013-02-18 21:24:00,
2013-02-18 16:26:00,27.5,-12.8,29.69,WNW,293,5.0,11.0,16,-99.99,,,0.00,meteohub,2013-02-18 21:26:00,
2013-02-18 16:27:00,27.5,-12.8,29.69,SSW,207,0.0,11.0,16,-99.99,,,0.00,meteohub,2013-02-18 21:27:00,
2013-02-18 16:30:00,27.3,-13.0,29.69,NW,319,4.0,11.0,16,-99.99,,,0.00,meteohub,2013-02-18 21:30:00,
2013-02-18 16:31:00,27.3,-13.0,29.69,WNW,290,3.0,11.0,16,-99.99,,,0.00,meteohub,2013-02-18 21:31:00,
2013-02-18 16:34:00,27.1,-13.2,29.69,NW,324,11.0,11.0,16,-99.99,,,0.00,meteohub,2013-02-18 21:34:00,
2013-02-18 16:36:00,27.1,-13.2,29.69,NW,325,6.0,11.0,16,-99.99,,,0.00,meteohub,2013-02-18 21:36:00,
2013-02-18 16:37:00,27.1,-13.2,29.69,NNW,334,0.0,11.0,16,-99.99,,,0.00,meteohub,2013-02-18 21:37:00,
2013-02-18 16:40:00,27.1,-13.2,29.69,WNW,289,4.0,11.0,16,-99.99,,,0.00,meteohub,2013-02-18 21:40:00,
2013-02-18 16:41:00,27.1,-13.2,29.69,SSE,168,0.0,11.0,16,-99.99,,,0.00,meteohub,2013-02-18 21:41:00,
2013-02-18 16:42:00,27.0,-13.4,29.69,NW,307,4.0,11.0,16,-99.99,,,0.00,meteohub,2013-02-18 21:42:00,
2013-02-18 16:46:00,27.0,-13.4,29.72,NW,321,6.0,11.0,16,-99.99,,,0.00,meteohub,2013-02-18 21:46:00,
2013-02-18 16:47:00,27.0,-13.4,29.72,WNW,284,6.0,11.0,16,-99.99,,,0.00,meteohub,2013-02-18 21:47:00,
2013-02-18 16:52:00,27.0,-13.4,29.72,NW,309,3.0,11.0,16,-99.99,,,0.00,meteohub,2013-02-18 21:52:00,
2013-02-18 16:53:00,27.0,-13.4,29.72,NW,323,0.0,11.0,16,-99.99,,,0.00,meteohub,2013-02-18 21:53:00,
2013-02-18 16:54:00,27.0,-13.4,29.72,NNW,329,0.0,11.0,16,-99.99,,,0.00,meteohub,2013-02-18 21:54:00,
2013-02-18 16:58:00,26.8,-13.4,29.72,WNW,286,0.0,11.0,16,-99.99,,,0.00,meteohub,2013-02-18 21:58:00,
2013-02-18 16:59:00,26.8,-13.4,29.72,NNW,335,4.0,11.0,16,-99.99,,,0.00,meteohub,2013-02-18 21:59:00,
2013-02-18 17:00:00,26.8,-13.4,29.72,NNW,344,4.0,11.0,16,-99.99,,,0.00,meteohub,2013-02-18 22:00:00,
2013-02-18 17:04:00,26.6,-13.5,29.72,NNW,328,0.0,11.0,16,-99.99,,,0.00,meteohub,2013-02-18 22:04:00,
2013-02-18 17:06:00,26.4,-13.7,29.72,WNW,289,0.0,11.0,16,-99.99,,,0.00,meteohub,2013-02-18 22:06:00,
2013-02-18 17:11:00,26.1,-14.1,29.72,WNW,298,3.0,11.0,16,-99.99,,,0.00,meteohub,2013-02-18 22:11:00,
2013-02-18 17:12:00,26.1,-14.1,29.72,NW,305,6.0,11.0,16,-99.99,,,0.00,meteohub,2013-02-18 22:12:00,
2013-02-18 17:13:00,26.1,-14.1,29.72,NW,316,4.0,11.0,16,-99.99,,,0.00,meteohub,2013-02-18 22:13:00,
2013-02-18 17:17:00,26.1,-14.1,29.72,NW,316,4.0,11.0,16,-99.99,,,0.00,meteohub,2013-02-18 22:17:00,
2013-02-18 17:18:00,25.9,-14.1,29.72,West,268,4.0,9.0,16,-99.99,,,0.00,meteohub,2013-02-18 22:18:00,
2013-02-18 17:19:00,25.9,-14.1,29.72,West,276,3.0,9.0,16,-99.99,,,0.00,meteohub,2013-02-18 22:19:00,
2013-02-18 17:23:00,25.9,-14.1,29.72,WSW,249,3.0,10.0,16,-99.99,,,0.00,meteohub,2013-02-18 22:23:00,
2013-02-18 17:24:00,25.9,-14.1,29.72,SW,229,0.0,10.0,16,-99.99,,,0.00,meteohub,2013-02-18 22:24:00,
2013-02-18 17:27:00,25.7,-14.3,29.72,WNW,291,0.0,10.0,16,-99.99,,,0.00,meteohub,2013-02-18 22:27:00,
2013-02-18 17:28:00,25.7,-14.3,29.72,NNW,334,0.0,10.0,16,-99.99,,,0.00,meteohub,2013-02-18 22:28:00,
2013-02-18 17:29:00,25.7,-14.3,29.72,WNW,300,5.0,10.0,16,-99.99,,,0.00,meteohub,2013-02-18 22:29:00,
2013-02-18 17:32:00,25.5,-14.4,29.72,NNW,338,4.0,10.0,16,-99.99,,,0.00,meteohub,2013-02-18 22:32:00,
2013-02-18 17:37:00,25.5,-14.4,29.72,WSW,240,3.0,10.0,16,-99.99,,,0.00,meteohub,2013-02-18 22:37:00,
2013-02-18 17:39:00,25.3,-14.6,29.72,NW,321,3.0,11.0,16,-99.99,,,0.00,meteohub,2013-02-18 22:39:00,
2013-02-18 17:42:00,25.3,-14.6,29.72,NNW,339,0.0,11.0,16,-99.99,,,0.00,meteohub,2013-02-18 22:42:00,
2013-02-18 17:46:00,25.3,-14.6,29.72,NNW,345,0.0,11.0,16,-99.99,,,0.00,meteohub,2013-02-18 22:46:00,
2013-02-18 17:47:00,25.3,-14.6,29.72,NW,306,0.0,11.0,16,-99.99,,,0.00,meteohub,2013-02-18 22:47:00,
2013-02-18 17:48:00,25.3,-14.6,29.72,NW,326,0.0,11.0,16,-99.99,,,0.00,meteohub,2013-02-18 22:48:00,
2013-02-18 17:52:00,25.3,-14.6,29.72,South,175,0.0,8.0,16,-99.99,,,0.00,meteohub,2013-02-18 22:52:00,
2013-02-18 17:53:00,25.2,-14.8,29.72,South,169,0.0,8.0,16,-99.99,,,0.00,meteohub,2013-02-18 22:53:00,
2013-02-18 17:54:00,25.2,-14.8,29.72,NW,325,3.0,8.0,16,-99.99,,,0.00,meteohub,2013-02-18 22:54:00,
2013-02-18 17:57:00,25.2,-14.8,29.72,WSW,239,6.0,6.0,16,-99.99,,,0.00,meteohub,2013-02-18 22:57:00,
2013-02-18 18:02:00,25.0,-15.0,29.72,NW,307,0.0,6.0,16,-99.99,,,0.00,meteohub,2013-02-18 23:02:00,
2013-02-18 18:03:00,25.0,-15.0,29.72,SSW,208,0.0,6.0,16,-99.99,,,0.00,meteohub,2013-02-18 23:03:00,
2013-02-18 18:04:00,25.0,-15.0,29.72,SE,125,0.0,6.0,16,-99.99,,,0.00,meteohub,2013-02-18 23:04:00,
2013-02-18 18:07:00,25.0,-15.0,29.72,NW,322,0.0,6.0,16,-99.99,,,0.00,meteohub,2013-02-18 23:07:00,
2013-02-18 18:08:00,25.0,-15.0,29.72,NW,320,4.0,6.0,16,-99.99,,,0.00,meteohub,2013-02-18 23:08:00,
2013-02-18 18:11:00,24.8,-13.9,29.72,SSW,192,0.0,6.0,17,-99.99,,,0.00,meteohub,2013-02-18 23:11:00,
2013-02-18 18:12:00,24.8,-13.9,29.72,NW,307,0.0,8.0,17,-99.99,,,0.00,meteohub,2013-02-18 23:12:00,
2013-02-18 18:15:00,24.8,-13.9,29.75,NNW,335,0.0,8.0,17,-99.99,,,0.00,meteohub,2013-02-18 23:15:00,
2013-02-18 18:17:00,24.8,-13.9,29.75,WNW,301,0.0,8.0,17,-99.99,,,0.00,meteohub,2013-02-18 23:17:00,
2013-02-18 18:19:00,24.8,-13.9,29.75,West,278,0.0,8.0,17,-99.99,,,0.00,meteohub,2013-02-18 23:19:00,
2013-02-18 18:22:00,24.8,-13.9,29.75,South,179,7.0,8.0,17,-99.99,,,0.00,meteohub,2013-02-18 23:22:00,
2013-02-18 18:23:00,24.8,-13.9,29.75,NNW,343,0.0,8.0,17,-99.99,,,0.00,meteohub,2013-02-18 23:23:00,
2013-02-18 18:25:00,24.8,-13.9,29.75,WNW,288,0.0,8.0,17,-99.99,,,0.00,meteohub,2013-02-18 23:25:00,
2013-02-18 18:27:00,24.6,-14.1,29.75,NW,318,4.0,8.0,17,-99.99,,,0.00,meteohub,2013-02-18 23:27:00,
2013-02-18 18:30:00,24.6,-14.1,29.75,WNW,300,0.0,8.0,17,-99.99,,,0.00,meteohub,2013-02-18 23:30:00,
2013-02-18 18:33:00,24.6,-14.1,29.75,WNW,290,0.0,8.0,17,-99.99,,,0.00,meteohub,2013-02-18 23:33:00,
2013-02-18 18:34:00,24.6,-14.1,29.75,NW,324,0.0,8.0,17,-99.99,,,0.00,meteohub,2013-02-18 23:34:00,
2013-02-18 18:36:00,24.4,-14.1,29.75,WNW,290,3.0,8.0,17,-99.99,,,0.00,meteohub,2013-02-18 23:36:00,
2013-02-18 18:39:00,24.4,-14.1,29.75,NW,319,2.0,8.0,17,-99.99,,,0.00,meteohub,2013-02-18 23:39:00,
2013-02-18 18:41:00,24.4,-14.1,29.75,SSW,210,0.0,8.0,17,-99.99,,,0.00,meteohub,2013-02-18 23:41:00,
2013-02-18 18:45:00,24.4,-14.1,29.75,NNE,32,0.0,10.0,17,-99.99,,,0.00,meteohub,2013-02-18 23:45:00,
2013-02-18 18:47:00,24.6,-14.1,29.75,NW,314,0.0,10.0,17,-99.99,,,0.00,meteohub,2013-02-18 23:47:00,
2013-02-18 18:50:00,24.4,-14.1,29.75,NNW,328,0.0,10.0,17,-99.99,,,0.00,meteohub,2013-02-18 23:50:00,
2013-02-18 18:53:00,24.4,-14.1,29.75,NNW,327,4.0,10.0,17,-99.99,,,0.00,meteohub,2013-02-18 23:53:00,
2013-02-18 18:56:00,24.4,-14.1,29.75,NNW,330,0.0,10.0,17,-99.99,,,0.00,meteohub,2013-02-18 23:56:00,
2013-02-18 18:57:00,24.4,-14.1,29.75,WSW,258,0.0,6.0,17,-99.99,,,0.00,meteohub,2013-02-18 23:57:00,
2013-02-18 19:00:00,24.4,-14.1,29.75,North,0,3.0,6.0,17,-99.99,,,0.00,meteohub,2013-02-19 00:00:00,
2013-02-18 19:02:00,24.4,-14.1,29.75,WSW,252,0.0,6.0,17,-99.99,,,0.00,meteohub,2013-02-19 00:02:00,
2013-02-18 19:05:00,24.3,-14.3,29.75,NW,304,4.0,6.0,17,-99.99,,,0.00,meteohub,2013-02-19 00:05:00,
2013-02-18 19:07:00,24.3,-14.3,29.75,NNW,331,3.0,6.0,17,-99.99,,,0.00,meteohub,2013-02-19 00:07:00,
2013-02-18 19:08:00,24.3,-14.3,29.75,NNW,333,4.0,6.0,17,-99.99,,,0.00,meteohub,2013-02-19 00:08:00,
2013-02-18 19:11:00,24.3,-14.3,29.75,NW,316,0.0,6.0,17,-99.99,,,0.00,meteohub,2013-02-19 00:11:00,
2013-02-18 19:13:00,24.3,-14.3,29.75,NW,307,3.0,8.0,17,-99.99,,,0.00,meteohub,2013-02-19 00:13:00,
2013-02-18 19:14:00,24.1,-14.4,29.75,NW,317,3.0,8.0,17,-99.99,,,0.00,meteohub,2013-02-19 00:14:00,
2013-02-18 19:16:00,24.1,-14.4,29.75,West,269,5.0,8.0,17,-99.99,,,0.00,meteohub,2013-02-19 00:16:00,
2013-02-18 19:20:00,24.1,-14.4,29.75,NNW,327,0.0,8.0,17,-99.99,,,0.00,meteohub,2013-02-19 00:20:00,
2013-02-18 19:22:00,24.1,-14.4,29.75,WNW,284,0.0,8.0,17,-99.99,,,0.00,meteohub,2013-02-19 00:22:00,
2013-02-18 19:25:00,24.1,-14.4,29.75,WNW,301,8.0,8.0,17,-99.99,,,0.00,meteohub,2013-02-19 00:25:00,
2013-02-18 19:26:00,24.1,-14.4,29.75,NNW,332,5.0,8.0,17,-99.99,,,0.00,meteohub,2013-02-19 00:26:00,
2013-02-18 19:28:00,24.1,-14.4,29.75,WNW,293,5.0,8.0,17,-99.99,,,0.00,meteohub,2013-02-19 00:28:00,
2013-02-18 19:32:00,24.1,-14.4,29.75,East,93,0.0,8.0,17,-99.99,,,0.00,meteohub,2013-02-19 00:32:00,
2013-02-18 19:34:00,23.9,-14.6,29.75,West,273,3.0,8.0,17,-99.99,,,0.00,meteohub,2013-02-19 00:34:00,
2013-02-18 19:38:00,23.9,-14.6,29.75,SSW,206,4.0,8.0,17,-99.99,,,0.00,meteohub,2013-02-19 00:38:00,
2013-02-18 19:39:00,23.9,-14.6,29.75,West,279,4.0,8.0,17,-99.99,,,0.00,meteohub,2013-02-19 00:39:00,
2013-02-18 19:43:00,23.7,-14.8,29.75,WNW,292,4.0,7.0,17,-99.99,,,0.00,meteohub,2013-02-19 00:43:00,
2013-02-18 19:45:00,23.7,-14.8,29.75,West,275,0.0,7.0,17,-99.99,,,0.00,meteohub,2013-02-19 00:45:00,
2013-02-18 19:47:00,23.7,-14.8,29.75,SW,236,0.0,7.0,17,-99.99,,,0.00,meteohub,2013-02-19 00:47:00,
2013-02-18 19:48:00,23.7,-14.8,29.75,NNW,330,3.0,7.0,17,-99.99,,,0.00,meteohub,2013-02-19 00:48:00,
2013-02-18 19:50:00,23.5,-15.0,29.75,West,259,0.0,7.0,17,-99.99,,,0.00,meteohub,2013-02-19 00:50:00,
2013-02-18 19:53:00,23.5,-15.0,29.75,NW,313,0.0,9.0,17,-99.99,,,0.00,meteohub,2013-02-19 00:53:00,
2013-02-18 19:55:00,23.5,-15.0,29.75,WNW,287,0.0,9.0,17,-99.99,,,0.00,meteohub,2013-02-19 00:55:00,
2013-02-18 19:58:00,23.5,-12.6,29.75,WNW,295,0.0,9.0,19,-99.99,,,0.00,meteohub,2013-02-19 00:58:00,
2013-02-18 20:00:00,23.4,-12.8,29.75,NW,306,3.0,9.0,19,-99.99,,,0.00,meteohub,2013-02-19 01:00:00,
2013-02-18 20:01:00,23.4,-12.8,29.75,WNW,301,4.0,9.0,19,-99.99,,,0.00,meteohub,2013-02-19 01:01:00,
2013-02-18 20:06:00,23.2,-13.0,29.75,NW,316,0.0,8.0,19,-99.99,,,0.00,meteohub,2013-02-19 01:06:00,
2013-02-18 20:09:00,23.0,-12.1,29.75,West,271,3.0,8.0,20,-99.99,,,0.00,meteohub,2013-02-19 01:09:00,
2013-02-18 20:12:00,23.0,-12.1,29.75,NW,306,3.0,5.0,20,-99.99,,,0.00,meteohub,2013-02-19 01:12:00,
2013-02-18 20:16:00,23.0,-12.1,29.75,NW,322,4.0,5.0,20,-99.99,,,0.00,meteohub,2013-02-19 01:16:00,
2013-02-18 20:18:00,23.2,-13.0,29.75,NNW,329,4.0,9.0,19,-99.99,,,0.00,meteohub,2013-02-19 01:18:00,
2013-02-18 20:21:00,23.2,-13.0,29.75,NW,312,4.0,9.0,19,-99.99,,,0.00,meteohub,2013-02-19 01:21:00,
2013-02-18 20:22:00,23.4,-12.8,29.75,NW,318,0.0,9.0,19,-99.99,,,0.00,meteohub,2013-02-19 01:22:00,
2013-02-18 20:24:00,23.2,-13.0,29.75,NNW,344,2.0,9.0,19,-99.99,,,0.00,meteohub,2013-02-19 01:24:00,
2013-02-18 20:27:00,23.2,-13.0,29.75,South,191,0.0,9.0,19,-99.99,,,0.00,meteohub,2013-02-19 01:27:00,
2013-02-18 20:28:00,23.2,-13.0,29.75,West,281,4.0,9.0,19,-99.99,,,0.00,meteohub,2013-02-19 01:28:00,
2013-02-18 20:30:00,23.2,-13.0,29.78,North,0,3.0,9.0,19,-99.99,,,0.00,meteohub,2013-02-19 01:30:00,
2013-02-18 20:33:00,23.2,-13.0,29.78,NNW,335,0.0,9.0,19,-99.99,,,0.00,meteohub,2013-02-19 01:33:00,
2013-02-18 20:34:00,23.2,-13.0,29.78,SSW,195,0.0,9.0,19,-99.99,,,0.00,meteohub,2013-02-19 01:34:00,
2013-02-18 20:35:00,23.2,-13.0,29.78,NNW,329,0.0,9.0,19,-99.99,,,0.00,meteohub,2013-02-19 01:35:00,
2013-02-18 20:41:00,23.2,-13.0,29.78,SSW,197,0.0,9.0,19,-99.99,,,0.00,meteohub,2013-02-19 01:41:00,
2013-02-18 20:43:00,23.0,-12.1,29.78,NW,304,0.0,8.0,20,-99.99,,,0.00,meteohub,2013-02-19 01:43:00,
2013-02-18 20:47:00,22.8,-12.3,29.78,WNW,303,4.0,8.0,20,-99.99,,,0.00,meteohub,2013-02-19 01:47:00,
2013-02-18 20:48:00,22.8,-12.3,29.78,South,187,0.0,8.0,20,-99.99,,,0.00,meteohub,2013-02-19 01:48:00,
2013-02-18 20:49:00,22.8,-12.3,29.78,South,189,0.0,8.0,20,-99.99,,,0.00,meteohub,2013-02-19 01:49:00,
2013-02-18 20:54:00,22.8,-12.3,29.78,SSW,196,0.0,6.0,20,-99.99,,,0.00,meteohub,2013-02-19 01:54:00,
2013-02-18 20:55:00,22.8,-12.3,29.78,SE,146,0.0,6.0,20,-99.99,,,0.00,meteohub,2013-02-19 01:55:00,
2013-02-18 20:56:00,22.8,-12.3,29.78,SE,146,0.0,6.0,20,-99.99,,,0.00,meteohub,2013-02-19 01:56:00,
2013-02-18 21:01:00,22.8,-12.3,29.78,ESE,120,0.0,6.0,20,-99.99,,,0.00,meteohub,2013-02-19 02:01:00,
2013-02-18 21:02:00,22.8,-12.3,29.78,ESE,120,0.0,6.0,20,-99.99,,,0.00,meteohub,2013-02-19 02:02:00,
2013-02-18 21:04:00,22.8,-12.3,29.78,WNW,303,3.0,6.0,20,-99.99,,,0.00,meteohub,2013-02-19 02:04:00,
2013-02-18 21:10:00,22.8,-12.3,29.78,West,267,0.0,6.0,20,-99.99,,,0.00,meteohub,2013-02-19 02:10:00,
2013-02-18 21:11:00,22.6,-12.5,29.78,WSW,254,0.0,6.0,20,-99.99,,,0.00,meteohub,2013-02-19 02:11:00,
2013-02-18 21:16:00,22.5,-12.6,29.78,South,177,0.0,4.0,20,-99.99,,,0.00,meteohub,2013-02-19 02:16:00,
2013-02-18 21:17:00,22.5,-12.6,29.78,South,177,0.0,4.0,20,-99.99,,,0.00,meteohub,2013-02-19 02:17:00,
2013-02-18 21:21:00,22.3,-12.6,29.78,South,186,0.0,4.0,20,-99.99,,,0.00,meteohub,2013-02-19 02:21:00,
2013-02-18 21:23:00,22.3,-12.6,29.78,South,186,0.0,4.0,20,-99.99,,,0.00,meteohub,2013-02-19 02:23:00,
2013-02-18 21:24:00,22.3,-12.6,29.78,South,176,0.0,4.0,20,-99.99,,,0.00,meteohub,2013-02-19 02:24:00,
2013-02-18 21:26:00,22.1,-12.8,29.78,SSE,155,0.0,4.0,20,-99.99,,,0.00,meteohub,2013-02-19 02:26:00,
2013-02-18 21:29:00,22.1,-12.8,29.78,WNW,290,0.0,4.0,20,-99.99,,,0.00,meteohub,2013-02-19 02:29:00,
2013-02-18 21:30:00,21.9,-13.0,29.78,NW,304,0.0,4.0,20,-99.99,,,0.00,meteohub,2013-02-19 02:30:00,
2013-02-18 21:33:00,21.9,-13.0,29.78,SSW,213,0.0,2.0,20,-99.99,,,0.00,meteohub,2013-02-19 02:33:00,
2013-02-18 21:35:00,21.9,-13.0,29.78,ESE,106,0.0,2.0,20,-99.99,,,0.00,meteohub,2013-02-19 02:35:00,
2013-02-18 21:36:00,21.9,-13.0,29.78,South,190,0.0,2.0,20,-99.99,,,0.00,meteohub,2013-02-19 02:36:00,
2013-02-18 21:39:00,21.9,-13.0,29.78,West,276,0.0,2.0,20,-99.99,,,0.00,meteohub,2013-02-19 02:39:00,
2013-02-18 21:41:00,21.9,-13.0,29.78,South,187,0.0,2.0,20,-99.99,,,0.00,meteohub,2013-02-19 02:41:00,
2013-02-18 21:42:00,21.9,-13.0,29.78,SSE,162,0.0,4.0,20,-99.99,,,0.00,meteohub,2013-02-19 02:42:00,
2013-02-18 21:45:00,21.9,-13.0,29.78,WNW,298,0.0,4.0,20,-99.99,,,0.00,meteohub,2013-02-19 02:45:00,
2013-02-18 21:48:00,21.9,-13.0,29.78,South,184,0.0,4.0,20,-99.99,,,0.00,meteohub,2013-02-19 02:48:00,
2013-02-18 21:50:00,21.9,-13.0,29.78,South,177,0.0,4.0,20,-99.99,,,0.00,meteohub,2013-02-19 02:50:00,
2013-02-18 21:54:00,21.9,-13.0,29.78,South,173,0.0,4.0,20,-99.99,,,0.00,meteohub,2013-02-19 02:54:00,
2013-02-18 21:56:00,21.9,-13.0,29.78,South,180,0.0,4.0,20,-99.99,,,0.00,meteohub,2013-02-19 02:56:00,
2013-02-18 22:00:00,21.7,-13.2,29.78,South,180,0.0,0.0,20,-99.99,,,0.00,meteohub,2013-02-19 03:00:00,
2013-02-18 22:01:00,21.7,-13.2,29.78,SSE,167,0.0,0.0,20,-99.99,,,0.00,meteohub,2013-02-19 03:01:00,
2013-02-18 22:03:00,21.7,-13.2,29.78,South,178,0.0,0.0,20,-99.99,,,0.00,meteohub,2013-02-19 03:03:00,
2013-02-18 22:05:00,21.7,-13.2,29.78,South,183,0.0,0.0,20,-99.99,,,0.00,meteohub,2013-02-19 03:05:00,
2013-02-18 22:06:00,21.6,-13.4,29.78,South,183,0.0,0.0,20,-99.99,,,0.00,meteohub,2013-02-19 03:06:00,
2013-02-18 22:08:00,21.6,-13.4,29.78,South,183,0.0,0.0,20,-99.99,,,0.00,meteohub,2013-02-19 03:08:00,
2013-02-18 22:12:00,21.4,-13.5,29.78,South,189,0.0,0.0,20,-99.99,,,0.00,meteohub,2013-02-19 03:12:00,
2013-02-18 22:13:00,21.4,-13.5,29.78,South,189,0.0,0.0,20,-99.99,,,0.00,meteohub,2013-02-19 03:13:00,
2013-02-18 22:17:00,21.4,-13.5,29.78,South,189,0.0,0.0,20,-99.99,,,0.00,meteohub,2013-02-19 03:17:00,
2013-02-18 22:18:00,21.2,-13.7,29.81,SSE,153,0.0,0.0,20,-99.99,,,0.00,meteohub,2013-02-19 03:18:00,
2013-02-18 22:20:00,21.2,-13.7,29.81,SSE,148,0.0,0.0,20,-99.99,,,0.00,meteohub,2013-02-19 03:20:00,
2013-02-18 22:24:00,21.2,-13.7,29.81,South,190,0.0,0.0,20,-99.99,,,0.00,meteohub,2013-02-19 03:24:00,
2013-02-18 22:25:00,21.2,-13.7,29.81,SSE,149,0.0,0.0,20,-99.99,,,0.00,meteohub,2013-02-19 03:25:00,
2013-02-18 22:26:00,21.2,-13.7,29.81,ENE,62,0.0,0.0,20,-99.99,,,0.00,meteohub,2013-02-19 03:26:00,
2013-02-18 22:30:00,21.4,-13.5,29.81,ENE,63,0.0,0.0,20,-99.99,,,0.00,meteohub,2013-02-19 03:30:00,
2013-02-18 22:34:00,21.4,-13.5,29.81,SE,146,0.0,5.0,20,-99.99,,,0.00,meteohub,2013-02-19 03:34:00,
2013-02-18 22:35:00,21.2,-13.7,29.81,SE,146,0.0,5.0,20,-99.99,,,0.00,meteohub,2013-02-19 03:35:00,
2013-02-18 22:36:00,21.2,-13.7,29.81,SE,146,0.0,5.0,20,-99.99,,,0.00,meteohub,2013-02-19 03:36:00,
2013-02-18 22:41:00,21.2,-13.7,29.81,SE,146,0.0,5.0,20,-99.99,,,0.00,meteohub,2013-02-19 03:41:00,
2013-02-18 22:43:00,21.0,-13.7,29.81,SE,146,0.0,0.0,20,-99.99,,,0.00,meteohub,2013-02-19 03:43:00,
2013-02-18 22:45:00,21.0,-13.7,29.81,SSE,150,0.0,0.0,20,-99.99,,,0.00,meteohub,2013-02-19 03:45:00,
2013-02-18 22:48:00,21.0,-13.7,29.81,SSE,164,0.0,0.0,20,-99.99,,,0.00,meteohub,2013-02-19 03:48:00,
2013-02-18 22:49:00,21.0,-13.7,29.81,South,181,0.0,0.0,20,-99.99,,,0.00,meteohub,2013-02-19 03:49:00,
2013-02-18 22:52:00,21.2,-13.7,29.81,South,181,0.0,0.0,20,-99.99,,,0.00,meteohub,2013-02-19 03:52:00,
2013-02-18 22:54:00,21.2,-13.7,29.81,South,181,0.0,0.0,20,-99.99,,,0.00,meteohub,2013-02-19 03:54:00,
2013-02-18 22:55:00,21.2,-13.7,29.81,WSW,239,0.0,0.0,20,-99.99,,,0.00,meteohub,2013-02-19 03:55:00,
2013-02-18 22:57:00,21.2,-13.7,29.81,WSW,239,0.0,0.0,20,-99.99,,,0.00,meteohub,2013-02-19 03:57:00,
2013-02-18 22:59:00,21.2,-13.7,29.81,ESE,111,0.0,0.0,20,-99.99,,,0.00,meteohub,2013-02-19 03:59:00,
2013-02-18 23:00:00,21.4,-13.5,29.81,SSW,207,0.0,0.0,20,-99.99,,,0.00,meteohub,2013-02-19 04:00:00,
2013-02-18 23:02:00,21.4,-13.5,29.81,SSW,207,0.0,0.0,20,-99.99,,,0.00,meteohub,2013-02-19 04:02:00,
2013-02-18 23:04:00,21.2,-13.7,29.81,SSW,207,0.0,0.0,20,-99.99,,,0.00,meteohub,2013-02-19 04:04:00,
2013-02-18 23:07:00,21.2,-13.7,29.81,SSE,164,0.0,0.0,20,-99.99,,,0.00,meteohub,2013-02-19 04:07:00,
2013-02-18 23:09:00,21.2,-13.7,29.81,SSW,194,0.0,0.0,20,-99.99,,,0.00,meteohub,2013-02-19 04:09:00,
2013-02-18 23:13:00,21.2,-13.7,29.81,WSW,256,0.0,0.0,20,-99.99,,,0.00,meteohub,2013-02-19 04:13:00,
2013-02-18 23:15:00,21.2,-13.7,29.81,South,190,0.0,0.0,20,-99.99,,,0.00,meteohub,2013-02-19 04:15:00,
2013-02-18 23:18:00,21.2,-13.7,29.81,South,172,0.0,0.0,20,-99.99,,,0.00,meteohub,2013-02-19 04:18:00,
2013-02-18 23:20:00,21.2,-13.7,29.81,South,171,0.0,0.0,20,-99.99,,,0.00,meteohub,2013-02-19 04:20:00,
2013-02-18 23:25:00,21.2,-13.7,29.81,South,172,0.0,0.0,20,-99.99,,,0.00,meteohub,2013-02-19 04:25:00,
2013-02-18 23:27:00,21.2,-13.7,29.81,South,171,0.0,0.0,20,-99.99,,,0.00,meteohub,2013-02-19 04:27:00,
2013-02-18 23:31:00,21.2,-13.7,29.81,South,171,0.0,0.0,20,-99.99,,,0.00,meteohub,2013-02-19 04:31:00,
2013-02-18 23:32:00,21.2,-13.7,29.78,South,171,0.0,0.0,20,-99.99,,,0.00,meteohub,2013-02-19 04:32:00,
2013-02-18 23:33:00,21.2,-13.7,29.78,South,172,0.0,0.0,20,-99.99,,,0.00,meteohub,2013-02-19 04:33:00,
2013-02-18 23:36:00,21.2,-13.7,29.78,South,172,0.0,0.0,20,-99.99,,,0.00,meteohub,2013-02-19 04:36:00,
2013-02-18 23:38:00,21.2,-13.7,29.78,South,171,0.0,0.0,20,-99.99,,,0.00,meteohub,2013-02-19 04:38:00,
2013-02-18 23:39:00,21.2,-13.7,29.78,South,172,0.0,0.0,20,-99.99,,,0.00,meteohub,2013-02-19 04:39:00,
2013-02-18 23:42:00,21.2,-13.7,29.78,South,172,0.0,0.0,20,-99.99,,,0.00,meteohub,2013-02-19 04:42:00,
2013-02-18 23:46:00,21.2,-13.7,29.78,South,172,0.0,0.0,20,-99.99,,,0.00,meteohub,2013-02-19 04:46:00,
2013-02-18 23:47:00,21.0,-13.7,29.81,South,172,0.0,0.0,20,-99.99,,,0.00,meteohub,2013-02-19 04:47:00,
2013-02-18 23:48:00,21.0,-13.7,29.81,South,172,0.0,0.0,20,-99.99,,,0.00,meteohub,2013-02-19 04:48:00,
2013-02-18 23:52:00,20.7,-14.1,29.81,South,172,0.0,0.0,20,-99.99,,,0.00,meteohub,2013-02-19 04:52:00,
2013-02-18 23:53:00,20.7,-14.1,29.81,South,172,0.0,0.0,20,-99.99,,,0.00,meteohub,2013-02-19 04:53:00,
2013-02-18 23:56:00,20.5,-14.3,29.81,South,172,0.0,0.0,20,-99.99,,,0.00,meteohub,2013-02-19 04:56:00,
2013-02-18 23:57:00,20.5,-14.3,29.81,South,172,0.0,0.0,20,-99.99,,,0.00,meteohub,2013-02-19 04:57:00,
2013-02-18 23:59:00,20.5,-14.3,29.81,South,172,0.0,0.0,20,-99.99,,,0.00,meteohub,2013-02-19 04:59:00,